Dew Point Data


Current

Temp 66.0 F. Dew Point 63.0 F.


Dew Point Comfort Scale

dewpoints

Date, Time Temperature Dew Point
Thu Jun 9 03:08:04 2022 65.0 F. 62.1 F.
Thu Jun 9 04:08:04 2022 64.0 F. 63.0 F.
Thu Jun 9 05:08:04 2022 62.0 F. 62.1 F.
Thu Jun 9 06:08:04 2022 60.0 F. 60.1 F.
Thu Jun 9 07:08:05 2022 60.0 F. 60.1 F.
Thu Jun 9 08:08:04 2022 63.0 F. 63.0 F.
Thu Jun 9 09:08:04 2022 68.0 F. 63.0 F.
Thu Jun 9 10:08:05 2022 75.0 F. 57.9 F.
Thu Jun 9 11:08:05 2022 77.0 F. 57.0 F.
Thu Jun 9 12:08:04 2022 77.0 F. 57.0 F.
Thu Jun 9 13:08:05 2022 81.0 F. 51.1 F.
Thu Jun 9 14:08:05 2022 81.0 F. 51.1 F.
Thu Jun 9 15:08:05 2022 83.0 F. 52.0 F.
Thu Jun 9 16:08:04 2022 82.0 F. 50.0 F.
Thu Jun 9 17:08:04 2022 84.0 F. 50.0 F.
Thu Jun 9 18:08:05 2022 81.0 F. 48.9 F.
Thu Jun 9 19:08:05 2022 81.0 F. 48.9 F.
Thu Jun 9 20:08:05 2022 80.0 F. 52.0 F.
Thu Jun 9 21:08:04 2022 74.0 F. 57.0 F.
Thu Jun 9 22:08:04 2022 70.0 F. 59.0 F.
Thu Jun 9 23:08:05 2022 66.0 F. 60.1 F.
Fri Jun 10 00:08:05 2022 64.0 F. 60.1 F.
Fri Jun 10 01:08:05 2022 64.0 F. 60.1 F.
Fri Jun 10 02:08:04 2022 62.0 F. 60.1 F.
Fri Jun 10 03:08:04 2022 62.0 F. 60.1 F.
Fri Jun 10 04:08:05 2022 61.0 F. 59.0 F.
Fri Jun 10 05:08:04 2022 62.0 F. 59.0 F.
Fri Jun 10 06:08:05 2022 61.0 F. 57.9 F.
Fri Jun 10 07:08:05 2022 63.0 F. 59.0 F.
Fri Jun 10 08:08:04 2022 64.0 F. 61.0 F.
Fri Jun 10 09:08:05 2022 65.0 F. 61.0 F.
Fri Jun 10 10:08:05 2022 65.0 F. 61.0 F.
Fri Jun 10 11:08:04 2022 65.0 F. 61.0 F.
Fri Jun 10 12:08:04 2022 75.0 F. 60.1 F.
Fri Jun 10 13:08:05 2022 75.0 F. 60.1 F.
Fri Jun 10 14:08:05 2022 80.0 F. 61.0 F.
Fri Jun 10 15:08:05 2022 82.0 F. 52.0 F.
Fri Jun 10 16:08:04 2022 82.0 F. 52.0 F.
Fri Jun 10 17:08:04 2022 82.0 F. 54.0 F.
Fri Jun 10 18:08:04 2022 82.0 F. 55.0 F.
Fri Jun 10 19:08:04 2022 78.0 F. 54.0 F.
Fri Jun 10 20:08:04 2022 76.0 F. 55.0 F.
Fri Jun 10 21:08:05 2022 76.0 F. 55.0 F.
Fri Jun 10 22:08:04 2022 69.0 F. 57.0 F.
Fri Jun 10 23:08:05 2022 68.0 F. 60.1 F.
Sat Jun 11 00:08:04 2022 68.0 F. 60.1 F.
Sat Jun 11 01:08:04 2022 68.0 F. 59.0 F.
Sat Jun 11 02:08:05 2022 67.0 F. 61.0 F.
Sat Jun 11 03:08:05 2022 68.0 F. 60.1 F.
Sat Jun 11 04:08:04 2022 67.0 F. 61.0 F.
Sat Jun 11 05:08:04 2022 67.0 F. 62.1 F.
Sat Jun 11 06:08:05 2022 66.0 F. 62.1 F.
Sat Jun 11 07:08:04 2022 65.0 F. 61.0 F.
Sat Jun 11 08:08:04 2022 68.0 F. 63.0 F.
Sat Jun 11 09:08:05 2022 76.0 F. 64.9 F.
Sat Jun 11 10:08:04 2022 76.0 F. 64.9 F.
Sat Jun 11 11:08:04 2022 79.0 F. 66.0 F.
Sat Jun 11 12:08:07 2022 81.0 F. 66.9 F.
Sat Jun 11 13:08:05 2022 82.0 F. 66.9 F.
Sat Jun 11 14:08:04 2022 85.0 F. 66.9 F.
Sat Jun 11 15:08:05 2022 86.0 F. 68.0 F.
Sat Jun 11 16:08:04 2022 85.0 F. 68.0 F.
Sat Jun 11 17:08:04 2022 85.0 F. 66.9 F.
Sat Jun 11 18:08:05 2022 87.0 F. 66.9 F.
Sat Jun 11 19:08:04 2022 86.0 F. 66.0 F.
Sat Jun 11 20:08:05 2022 85.0 F. 66.9 F.
Sat Jun 11 21:08:04 2022 79.0 F. 68.0 F.
Sat Jun 11 22:08:05 2022 77.0 F. 69.1 F.
Sat Jun 11 23:08:05 2022 76.0 F. 69.1 F.
Sun Jun 12 00:08:05 2022 75.0 F. 69.1 F.
Sun Jun 12 01:08:04 2022 74.0 F. 68.0 F.
Sun Jun 12 02:08:04 2022 75.0 F. 69.1 F.
Sun Jun 12 03:08:05 2022 75.0 F. 69.1 F.
Sun Jun 12 04:08:05 2022 74.0 F. 69.1 F.
Sun Jun 12 05:08:04 2022 74.0 F. 69.1 F.
Sun Jun 12 06:08:05 2022 74.0 F. 69.1 F.
Sun Jun 12 07:08:05 2022 73.0 F. 69.1 F.
Sun Jun 12 08:08:05 2022 75.0 F. 70.0 F.
Sun Jun 12 09:08:04 2022 77.0 F. 70.0 F.
Sun Jun 12 10:08:04 2022 81.0 F. 72.0 F.
Sun Jun 12 11:08:04 2022 85.0 F. 73.9 F.
Sun Jun 12 12:08:05 2022 83.0 F. 73.9 F.
Sun Jun 12 13:08:04 2022 90.0 F. 77.0 F.
Sun Jun 12 14:08:04 2022 92.0 F. 77.0 F.
Sun Jun 12 15:08:04 2022 92.0 F. 77.0 F.
Sun Jun 12 16:08:04 2022 93.0 F. 77.0 F.
Sun Jun 12 17:08:04 2022 93.0 F. 75.9 F.
Sun Jun 12 18:08:05 2022 94.0 F. 77.0 F.
Sun Jun 12 19:08:04 2022 93.0 F. 78.1 F.
Sun Jun 12 20:08:04 2022 91.0 F. 78.1 F.
Sun Jun 12 21:08:04 2022 86.0 F. 78.1 F.
Sun Jun 12 22:08:04 2022 86.0 F. 78.1 F.
Sun Jun 12 23:08:04 2022 81.0 F. 78.1 F.
Mon Jun 13 00:08:05 2022 81.0 F. 78.1 F.
Mon Jun 13 01:08:05 2022 81.0 F. 78.1 F.
Mon Jun 13 02:08:04 2022 81.0 F. 78.1 F.
Mon Jun 13 03:08:05 2022 83.0 F. 78.1 F.
Mon Jun 13 04:08:04 2022 81.0 F. 77.0 F.
Mon Jun 13 05:08:04 2022 80.0 F. 75.9 F.
Mon Jun 13 06:08:04 2022 79.0 F. 75.9 F.
Mon Jun 13 07:08:05 2022 79.0 F. 75.9 F.
Mon Jun 13 08:08:05 2022 84.0 F. 78.1 F.
Mon Jun 13 09:08:05 2022 84.0 F. 78.1 F.
Mon Jun 13 10:08:04 2022 85.0 F. 78.1 F.
Mon Jun 13 11:08:04 2022 88.0 F. 78.1 F.
Mon Jun 13 12:08:05 2022 92.0 F. 78.1 F.
Mon Jun 13 13:08:04 2022 92.0 F. 78.1 F.
Mon Jun 13 14:08:05 2022 97.0 F. 77.0 F.
Mon Jun 13 15:08:05 2022 97.0 F. 77.0 F.
Mon Jun 13 16:08:04 2022 97.0 F. 77.0 F.
Mon Jun 13 17:08:04 2022 97.0 F. 77.0 F.
Mon Jun 13 18:08:05 2022 97.0 F. 72.0 F.
Mon Jun 13 19:08:05 2022 97.0 F. 72.0 F.
Mon Jun 13 20:08:05 2022 97.0 F. 72.0 F.
Mon Jun 13 21:08:05 2022 90.0 F. 75.9 F.
Mon Jun 13 22:08:05 2022 86.0 F. 73.9 F.
Mon Jun 13 23:08:04 2022 84.0 F. 73.0 F.
Tue Jun 14 00:08:05 2022 84.0 F. 73.0 F.
Tue Jun 14 01:08:04 2022 85.0 F. 73.9 F.
Tue Jun 14 02:08:05 2022 85.0 F. 73.9 F.
Tue Jun 14 03:08:05 2022 85.0 F. 73.9 F.
Tue Jun 14 04:08:06 2022 83.0 F. 75.0 F.
Tue Jun 14 05:08:05 2022 81.0 F. 75.0 F.
Tue Jun 14 06:08:05 2022 81.0 F. 75.0 F.
Tue Jun 14 07:08:04 2022 80.0 F. 75.0 F.
Tue Jun 14 08:08:05 2022 81.0 F. 75.9 F.
Tue Jun 14 09:08:04 2022 86.0 F. 75.0 F.
Tue Jun 14 10:08:04 2022 89.0 F. 75.0 F.
Tue Jun 14 11:08:04 2022 89.0 F. 75.0 F.
Tue Jun 14 12:08:04 2022 89.0 F. 75.0 F.
Tue Jun 14 13:08:04 2022 93.0 F. 75.0 F.
Tue Jun 14 14:08:04 2022 95.0 F. 73.0 F.
Tue Jun 14 15:08:04 2022 97.0 F. 73.0 F.
Tue Jun 14 16:08:04 2022 98.0 F. 71.1 F.
Tue Jun 14 17:08:04 2022 97.0 F. 71.1 F.
Tue Jun 14 18:08:04 2022 97.0 F. 71.1 F.
Tue Jun 14 19:08:05 2022 94.0 F. 70.0 F.
Tue Jun 14 20:08:04 2022 94.0 F. 70.0 F.
Tue Jun 14 21:08:05 2022 94.0 F. 70.0 F.
Tue Jun 14 22:08:05 2022 86.0 F. 71.1 F.
Tue Jun 14 23:08:05 2022 85.0 F. 69.1 F.
Wed Jun 15 00:08:04 2022 83.0 F. 68.0 F.
Wed Jun 15 01:08:05 2022 82.0 F. 68.0 F.
Wed Jun 15 02:08:05 2022 80.0 F. 66.9 F.
Wed Jun 15 03:08:05 2022 80.0 F. 66.9 F.
Wed Jun 15 04:08:04 2022 80.0 F. 66.9 F.
Wed Jun 15 05:08:04 2022 79.0 F. 69.1 F.
Wed Jun 15 06:08:05 2022 75.0 F. 68.0 F.
Wed Jun 15 07:08:05 2022 74.0 F. 68.0 F.
Wed Jun 15 08:08:04 2022 74.0 F. 68.0 F.
Wed Jun 15 09:08:05 2022 74.0 F. 68.0 F.
Wed Jun 15 10:08:05 2022 85.0 F. 73.9 F.
Wed Jun 15 11:08:05 2022 85.0 F. 73.9 F.
Wed Jun 15 12:08:04 2022 91.0 F. 75.0 F.
Wed Jun 15 13:08:05 2022 93.0 F. 73.9 F.
Wed Jun 15 14:08:04 2022 95.0 F. 73.0 F.
Wed Jun 15 15:08:05 2022 96.0 F. 71.1 F.
Wed Jun 15 16:08:04 2022 97.0 F. 71.1 F.
Wed Jun 15 17:08:05 2022 96.0 F. 71.1 F.
Wed Jun 15 18:08:04 2022 96.0 F. 71.1 F.
Wed Jun 15 19:08:04 2022 93.0 F. 73.0 F.
Wed Jun 15 20:08:04 2022 93.0 F. 73.0 F.
Wed Jun 15 21:08:05 2022 89.0 F. 69.1 F.
Wed Jun 15 22:08:05 2022 86.0 F. 69.1 F.
Wed Jun 15 23:08:04 2022 83.0 F. 66.0 F.
Thu Jun 16 00:08:05 2022 82.0 F. 66.0 F.
Thu Jun 16 01:08:04 2022 79.0 F. 66.0 F.
Thu Jun 16 02:08:05 2022 77.0 F. 66.0 F.
Thu Jun 16 03:08:04 2022 77.0 F. 66.0 F.
Thu Jun 16 04:08:04 2022 78.0 F. 68.0 F.
Thu Jun 16 05:08:05 2022 79.0 F. 69.1 F.
Thu Jun 16 06:08:04 2022 78.0 F. 69.1 F.
Thu Jun 16 07:08:04 2022 78.0 F. 70.0 F.
Thu Jun 16 08:08:04 2022 80.0 F. 71.1 F.
Thu Jun 16 09:08:04 2022 83.0 F. 73.0 F.
Thu Jun 16 10:08:04 2022 85.0 F. 73.0 F.
Thu Jun 16 11:08:04 2022 89.0 F. 73.9 F.
Thu Jun 16 12:08:04 2022 91.0 F. 73.9 F.
Thu Jun 16 13:08:05 2022 93.0 F. 73.9 F.
Thu Jun 16 14:08:04 2022 92.0 F. 73.9 F.
Thu Jun 16 15:08:05 2022 97.0 F. 73.9 F.
Thu Jun 16 16:08:04 2022 97.0 F. 73.9 F.
Thu Jun 16 17:08:05 2022 96.0 F. 75.0 F.
Thu Jun 16 18:08:05 2022 95.0 F. 75.0 F.
Thu Jun 16 19:08:04 2022 95.0 F. 75.9 F.
Thu Jun 16 20:08:05 2022 93.0 F. 75.0 F.
Thu Jun 16 21:08:04 2022 93.0 F. 75.0 F.
Thu Jun 16 22:08:04 2022 85.0 F. 75.9 F.
Thu Jun 16 23:08:04 2022 84.0 F. 75.9 F.
Fri Jun 17 00:08:05 2022 82.0 F. 75.9 F.
Fri Jun 17 01:08:04 2022 81.0 F. 75.0 F.
Fri Jun 17 02:08:05 2022 79.0 F. 75.0 F.
Fri Jun 17 03:08:04 2022 79.0 F. 75.0 F.
Fri Jun 17 04:08:04 2022 78.0 F. 75.0 F.
Fri Jun 17 05:08:04 2022 77.0 F. 75.0 F.
Fri Jun 17 06:08:04 2022 77.0 F. 75.0 F.
Fri Jun 17 07:08:05 2022 77.0 F. 75.0 F.
Fri Jun 17 08:08:04 2022 81.0 F. 68.0 F.
Fri Jun 17 09:08:04 2022 74.0 F. 68.0 F.
Fri Jun 17 10:08:04 2022 73.0 F. 69.1 F.
Fri Jun 17 11:08:04 2022 73.0 F. 70.0 F.
Fri Jun 17 12:08:04 2022 75.0 F. 69.1 F.
Fri Jun 17 13:08:04 2022 79.0 F. 70.0 F.
Fri Jun 17 14:08:04 2022 81.0 F. 71.1 F.
Fri Jun 17 15:08:04 2022 85.0 F. 72.0 F.
Fri Jun 17 16:08:04 2022 86.0 F. 70.0 F.
Fri Jun 17 17:08:05 2022 89.0 F. 71.1 F.
Fri Jun 17 18:08:04 2022 90.0 F. 68.0 F.
Fri Jun 17 19:08:04 2022 90.0 F. 68.0 F.
Fri Jun 17 20:08:05 2022 90.0 F. 68.0 F.
Fri Jun 17 21:08:04 2022 86.0 F. 69.1 F.
Fri Jun 17 22:08:04 2022 80.0 F. 70.0 F.
Fri Jun 17 23:08:05 2022 76.0 F. 70.0 F.
Sat Jun 18 00:08:04 2022 74.0 F. 70.0 F.
Sat Jun 18 01:08:04 2022 72.0 F. 70.0 F.
Sat Jun 18 02:08:04 2022 72.0 F. 70.0 F.
Sat Jun 18 03:08:05 2022 71.0 F. 70.0 F.
Sat Jun 18 04:08:04 2022 71.0 F. 70.0 F.
Sat Jun 18 05:08:05 2022 69.0 F. 69.1 F.
Sat Jun 18 06:08:04 2022 70.0 F. 69.1 F.
Sat Jun 18 07:08:05 2022 69.0 F. 64.9 F.
Sat Jun 18 08:08:05 2022 72.0 F. 64.9 F.
Sat Jun 18 09:08:05 2022 75.0 F. 62.1 F.
Sat Jun 18 10:08:04 2022 79.0 F. 57.0 F.
Sat Jun 18 11:08:04 2022 81.0 F. 57.0 F.
Sat Jun 18 12:08:04 2022 83.0 F. 57.0 F.
Sat Jun 18 13:08:04 2022 84.0 F. 57.9 F.
Sat Jun 18 14:08:05 2022 85.0 F. 57.0 F.
Sat Jun 18 15:08:05 2022 86.0 F. 55.0 F.
Sat Jun 18 16:08:04 2022 86.0 F. 55.0 F.
Sat Jun 18 17:08:04 2022 86.0 F. 55.0 F.
Sat Jun 18 18:08:04 2022 86.0 F. 55.0 F.
Sat Jun 18 19:08:05 2022 86.0 F. 55.0 F.
Sat Jun 18 20:08:04 2022 82.0 F. 48.0 F.
Sat Jun 18 21:08:04 2022 82.0 F. 48.0 F.
Sat Jun 18 22:08:05 2022 71.0 F. 53.1 F.
Sat Jun 18 23:08:05 2022 64.0 F. 55.0 F.
Sun Jun 19 00:08:04 2022 64.0 F. 55.0 F.
Sun Jun 19 01:08:05 2022 61.0 F. 55.0 F.
Sun Jun 19 02:08:04 2022 61.0 F. 55.0 F.
Sun Jun 19 03:08:04 2022 59.0 F. 55.9 F.
Sun Jun 19 04:08:04 2022 59.0 F. 55.9 F.
Sun Jun 19 05:08:05 2022 57.0 F. 55.9 F.
Sun Jun 19 06:08:05 2022 56.0 F. 55.0 F.
Sun Jun 19 07:08:04 2022 56.0 F. 55.0 F.
Sun Jun 19 08:08:04 2022 60.0 F. 57.0 F.
Sun Jun 19 09:08:05 2022 66.0 F. 57.0 F.
Sun Jun 19 10:08:04 2022 66.0 F. 57.0 F.
Sun Jun 19 11:08:05 2022 66.0 F. 57.0 F.
Sun Jun 19 12:08:05 2022 79.0 F. 48.0 F.
Sun Jun 19 13:08:04 2022 82.0 F. 48.9 F.
Sun Jun 19 14:08:04 2022 83.0 F. 48.9 F.
Sun Jun 19 15:08:04 2022 84.0 F. 48.9 F.
Sun Jun 19 16:08:04 2022 85.0 F. 51.1 F.
Sun Jun 19 17:08:04 2022 85.0 F. 51.1 F.
Sun Jun 19 18:08:05 2022 85.0 F. 51.1 F.
Sun Jun 19 19:08:04 2022 85.0 F. 50.0 F.
Sun Jun 19 20:08:04 2022 83.0 F. 52.0 F.
Sun Jun 19 21:08:05 2022 83.0 F. 52.0 F.
Sun Jun 19 22:08:04 2022 71.0 F. 57.0 F.
Sun Jun 19 23:08:05 2022 69.0 F. 55.9 F.
Mon Jun 20 00:08:04 2022 65.0 F. 57.0 F.
Mon Jun 20 01:08:05 2022 65.0 F. 57.0 F.
Mon Jun 20 02:08:05 2022 62.0 F. 57.0 F.
Mon Jun 20 03:08:04 2022 62.0 F. 57.0 F.
Mon Jun 20 04:08:04 2022 59.0 F. 55.9 F.
Mon Jun 20 05:08:04 2022 59.0 F. 55.9 F.
Mon Jun 20 06:08:04 2022 59.0 F. 55.9 F.
Mon Jun 20 07:08:04 2022 59.0 F. 55.9 F.
Mon Jun 20 08:08:04 2022 59.0 F. 55.9 F.
Mon Jun 20 09:08:04 2022 70.0 F. 57.9 F.
Mon Jun 20 10:08:05 2022 77.0 F. 57.0 F.
Mon Jun 20 11:08:05 2022 81.0 F. 55.0 F.
Mon Jun 20 12:08:05 2022 81.0 F. 55.0 F.
Mon Jun 20 13:08:05 2022 87.0 F. 55.0 F.
Mon Jun 20 14:08:05 2022 88.0 F. 57.0 F.
Mon Jun 20 15:08:04 2022 88.0 F. 57.0 F.
Mon Jun 20 16:08:04 2022 88.0 F. 57.0 F.
Mon Jun 20 17:08:04 2022 92.0 F. 57.0 F.
Mon Jun 20 18:08:04 2022 92.0 F. 57.0 F.
Mon Jun 20 19:08:05 2022 90.0 F. 59.0 F.
Mon Jun 20 20:08:04 2022 88.0 F. 57.9 F.
Mon Jun 20 21:08:04 2022 84.0 F. 62.1 F.
Mon Jun 20 22:08:05 2022 74.0 F. 63.0 F.
Mon Jun 20 23:08:05 2022 74.0 F. 63.0 F.
Tue Jun 21 00:08:04 2022 72.0 F. 64.0 F.
Tue Jun 21 01:08:04 2022 67.0 F. 63.0 F.
Tue Jun 21 02:08:04 2022 67.0 F. 63.0 F.
Tue Jun 21 03:08:05 2022 67.0 F. 63.0 F.
Tue Jun 21 04:08:05 2022 67.0 F. 63.0 F.
Tue Jun 21 05:08:04 2022 63.0 F. 61.0 F.
Tue Jun 21 06:08:05 2022 63.0 F. 61.0 F.
Tue Jun 21 07:08:04 2022 63.0 F. 61.0 F.
Tue Jun 21 08:08:05 2022 63.0 F. 61.0 F.
Tue Jun 21 09:08:04 2022 73.0 F. 63.0 F.
Tue Jun 21 10:08:04 2022 73.0 F. 63.0 F.
Tue Jun 21 11:08:05 2022 86.0 F. 63.0 F.
Tue Jun 21 12:08:05 2022 86.0 F. 63.0 F.
Tue Jun 21 13:08:04 2022 86.0 F. 63.0 F.
Tue Jun 21 14:08:04 2022 93.0 F. 66.0 F.
Tue Jun 21 15:08:04 2022 95.0 F. 64.9 F.
Tue Jun 21 16:08:05 2022 95.0 F. 64.9 F.
Tue Jun 21 17:08:05 2022 95.0 F. 64.0 F.
Tue Jun 21 18:08:05 2022 95.0 F. 66.9 F.
Tue Jun 21 19:08:04 2022 95.0 F. 66.9 F.
Tue Jun 21 20:08:04 2022 93.0 F. 66.0 F.
Tue Jun 21 21:08:04 2022 88.0 F. 69.1 F.
Tue Jun 21 22:08:04 2022 88.0 F. 69.1 F.
Tue Jun 21 23:08:04 2022 88.0 F. 69.1 F.
Wed Jun 22 00:08:05 2022 75.0 F. 72.0 F.
Wed Jun 22 01:08:04 2022 74.0 F. 70.0 F.
Wed Jun 22 02:08:04 2022 73.0 F. 71.1 F.
Wed Jun 22 03:08:04 2022 73.0 F. 70.0 F.
Wed Jun 22 04:08:04 2022 73.0 F. 69.1 F.
Wed Jun 22 05:08:04 2022 73.0 F. 69.1 F.
Wed Jun 22 06:08:04 2022 70.0 F. 69.1 F.
Wed Jun 22 07:08:05 2022 70.0 F. 69.1 F.
Wed Jun 22 08:08:05 2022 77.0 F. 70.0 F.
Wed Jun 22 09:08:05 2022 77.0 F. 70.0 F.
Wed Jun 22 10:08:05 2022 86.0 F. 69.1 F.
Wed Jun 22 11:08:05 2022 86.0 F. 69.1 F.
Wed Jun 22 12:08:04 2022 86.0 F. 69.1 F.
Wed Jun 22 13:08:05 2022 86.0 F. 69.1 F.
Wed Jun 22 14:08:04 2022 86.0 F. 69.1 F.
Wed Jun 22 15:08:05 2022 96.0 F. 69.1 F.
Wed Jun 22 16:08:04 2022 96.0 F. 69.1 F.
Wed Jun 22 17:08:04 2022 96.0 F. 69.1 F.
Wed Jun 22 18:08:04 2022 96.0 F. 69.1 F.
Wed Jun 22 19:08:05 2022 90.0 F. 70.0 F.
Wed Jun 22 20:08:05 2022 90.0 F. 72.0 F.
Wed Jun 22 21:08:04 2022 88.0 F. 66.9 F.
Wed Jun 22 22:08:05 2022 83.0 F. 66.0 F.
Wed Jun 22 23:08:05 2022 83.0 F. 66.0 F.
Thu Jun 23 00:08:05 2022 78.0 F. 66.9 F.
Thu Jun 23 01:08:05 2022 76.0 F. 66.0 F.
Thu Jun 23 02:08:05 2022 74.0 F. 64.9 F.
Thu Jun 23 03:08:05 2022 73.0 F. 63.0 F.
Thu Jun 23 04:08:06 2022 73.0 F. 63.0 F.
Thu Jun 23 05:08:05 2022 68.0 F. 63.0 F.
Thu Jun 23 06:08:05 2022 65.0 F. 62.1 F.
Thu Jun 23 07:08:04 2022 65.0 F. 62.1 F.
Thu Jun 23 08:08:05 2022 70.0 F. 63.0 F.
Thu Jun 23 09:08:05 2022 75.0 F. 63.0 F.
Thu Jun 23 10:08:04 2022 81.0 F. 62.1 F.
Thu Jun 23 11:08:05 2022 81.0 F. 62.1 F.
Thu Jun 23 12:08:04 2022 81.0 F. 62.1 F.
Thu Jun 23 13:08:04 2022 88.0 F. 60.1 F.
Thu Jun 23 14:08:05 2022 88.0 F. 60.1 F.
Thu Jun 23 15:08:05 2022 88.0 F. 60.1 F.
Thu Jun 23 16:08:04 2022 91.0 F. 59.0 F.
Thu Jun 23 17:08:04 2022 91.0 F. 59.0 F.
Thu Jun 23 18:08:05 2022 91.0 F. 59.0 F.
Thu Jun 23 19:08:05 2022 91.0 F. 59.0 F.
Thu Jun 23 20:08:05 2022 91.0 F. 59.0 F.
Thu Jun 23 21:08:05 2022 91.0 F. 59.0 F.
Thu Jun 23 22:08:05 2022 76.0 F. 63.0 F.
Thu Jun 23 23:08:04 2022 74.0 F. 63.0 F.
Fri Jun 24 00:08:05 2022 72.0 F. 64.0 F.
Fri Jun 24 01:08:04 2022 72.0 F. 64.0 F.
Fri Jun 24 02:08:05 2022 68.0 F. 63.0 F.
Fri Jun 24 03:08:04 2022 64.0 F. 62.1 F.
Fri Jun 24 04:08:06 2022 64.0 F. 62.1 F.
Fri Jun 24 05:08:05 2022 64.0 F. 62.1 F.
Fri Jun 24 06:08:04 2022 63.0 F. 62.1 F.
Fri Jun 24 07:08:05 2022 63.0 F. 62.1 F.
Fri Jun 24 08:08:05 2022 67.0 F. 64.9 F.
Fri Jun 24 09:08:04 2022 73.0 F. 66.0 F.
Fri Jun 24 10:08:05 2022 80.0 F. 63.0 F.
Fri Jun 24 11:08:04 2022 80.0 F. 63.0 F.
Fri Jun 24 12:08:05 2022 87.0 F. 57.0 F.
Fri Jun 24 13:08:05 2022 89.0 F. 55.9 F.
Fri Jun 24 14:08:05 2022 89.0 F. 55.9 F.
Fri Jun 24 15:08:04 2022 91.0 F. 55.9 F.
Fri Jun 24 16:08:05 2022 91.0 F. 55.9 F.
Fri Jun 24 17:08:07 2022 91.0 F. 55.9 F.
Fri Jun 24 18:08:04 2022 90.0 F. 57.0 F.
Fri Jun 24 19:08:05 2022 89.0 F. 59.0 F.
Fri Jun 24 20:08:04 2022 87.0 F. 57.9 F.
Fri Jun 24 21:08:05 2022 84.0 F. 57.9 F.
Fri Jun 24 22:08:05 2022 84.0 F. 57.9 F.
Fri Jun 24 23:08:06 2022 74.0 F. 61.0 F.
Sat Jun 25 00:08:05 2022 71.0 F. 63.0 F.
Sat Jun 25 01:08:05 2022 71.0 F. 63.0 F.
Sat Jun 25 02:08:05 2022 71.0 F. 63.0 F.
Sat Jun 25 03:08:05 2022 71.0 F. 63.0 F.
Sat Jun 25 04:08:05 2022 71.0 F. 63.0 F.
Sat Jun 25 05:08:06 2022 68.0 F. 64.0 F.
Sat Jun 25 06:08:04 2022 68.0 F. 64.0 F.
Sat Jun 25 07:08:05 2022 68.0 F. 64.0 F.
Sat Jun 25 08:08:05 2022 68.0 F. 64.0 F.
Sat Jun 25 09:08:04 2022 68.0 F. 64.0 F.
Sat Jun 25 10:08:05 2022 80.0 F. 64.9 F.
Sat Jun 25 11:08:06 2022 80.0 F. 64.9 F.
Sat Jun 25 12:08:04 2022 88.0 F. 64.9 F.
Sat Jun 25 13:08:04 2022 88.0 F. 64.9 F.
Sat Jun 25 14:08:04 2022 91.0 F. 64.0 F.
Sat Jun 25 15:08:05 2022 91.0 F. 64.0 F.
Sat Jun 25 16:08:05 2022 91.0 F. 64.0 F.
Sat Jun 25 17:08:06 2022 95.0 F. 66.9 F.
Sat Jun 25 18:08:05 2022 95.0 F. 66.9 F.
Sat Jun 25 19:08:05 2022 94.0 F. 66.9 F.
Sat Jun 25 20:08:05 2022 92.0 F. 66.9 F.
Sat Jun 25 21:08:04 2022 89.0 F. 66.9 F.
Sat Jun 25 22:08:04 2022 89.0 F. 66.9 F.
Sat Jun 25 23:08:05 2022 81.0 F. 66.9 F.
Sun Jun 26 00:08:05 2022 83.0 F. 64.9 F.
Sun Jun 26 01:08:06 2022 83.0 F. 64.9 F.
Sun Jun 26 02:08:04 2022 83.0 F. 64.9 F.
Sun Jun 26 03:08:05 2022 83.0 F. 64.9 F.
Sun Jun 26 04:08:04 2022 83.0 F. 64.9 F.
Sun Jun 26 05:08:06 2022 83.0 F. 66.9 F.
Sun Jun 26 06:08:05 2022 83.0 F. 66.9 F.
Sun Jun 26 07:08:04 2022 74.0 F. 72.0 F.
Sun Jun 26 08:08:05 2022 74.0 F. 72.0 F.
Sun Jun 26 09:08:05 2022 74.0 F. 72.0 F.
Sun Jun 26 10:08:05 2022 74.0 F. 72.0 F.
Sun Jun 26 11:08:04 2022 74.0 F. 72.0 F.
Sun Jun 26 12:08:05 2022 74.0 F. 72.0 F.
Sun Jun 26 13:08:05 2022 74.0 F. 72.0 F.
Sun Jun 26 14:08:05 2022 76.0 F. 73.9 F.
Sun Jun 26 15:08:05 2022 76.0 F. 73.0 F.
Sun Jun 26 16:08:04 2022 76.0 F. 72.0 F.
Sun Jun 26 17:08:05 2022 76.0 F. 72.0 F.
Sun Jun 26 18:08:06 2022 80.0 F. 64.9 F.
Sun Jun 26 19:08:04 2022 80.0 F. 64.0 F.
Sun Jun 26 20:08:05 2022 80.0 F. 64.0 F.
Sun Jun 26 21:08:05 2022 80.0 F. 64.0 F.
Sun Jun 26 22:08:04 2022 72.0 F. 64.0 F.
Sun Jun 26 23:08:05 2022 72.0 F. 64.0 F.
Mon Jun 27 00:08:05 2022 67.0 F. 63.0 F.
Mon Jun 27 01:08:05 2022 65.0 F. 62.1 F.
Mon Jun 27 02:08:04 2022 65.0 F. 62.1 F.
Mon Jun 27 03:08:05 2022 63.0 F. 59.0 F.
Mon Jun 27 04:08:05 2022 62.0 F. 59.0 F.
Mon Jun 27 05:08:06 2022 61.0 F. 57.0 F.
Mon Jun 27 06:08:06 2022 61.0 F. 57.0 F.
Mon Jun 27 07:08:05 2022 61.0 F. 57.0 F.
Mon Jun 27 08:08:04 2022 63.0 F. 57.9 F.
Mon Jun 27 09:08:05 2022 63.0 F. 57.9 F.
Mon Jun 27 10:08:04 2022 63.0 F. 57.9 F.
Mon Jun 27 11:08:04 2022 76.0 F. 54.0 F.
Mon Jun 27 12:08:04 2022 76.0 F. 54.0 F.
Mon Jun 27 13:08:04 2022 76.0 F. 54.0 F.
Mon Jun 27 14:08:05 2022 81.0 F. 48.9 F.
Mon Jun 27 15:08:04 2022 81.0 F. 48.9 F.
Mon Jun 27 16:08:05 2022 81.0 F. 48.9 F.
Mon Jun 27 17:08:05 2022 81.0 F. 48.9 F.
Mon Jun 27 18:08:05 2022 82.0 F. 48.0 F.
Mon Jun 27 19:08:05 2022 81.0 F. 50.0 F.
Mon Jun 27 20:08:05 2022 81.0 F. 50.0 F.
Mon Jun 27 21:08:05 2022 76.0 F. 48.0 F.
Mon Jun 27 22:08:05 2022 76.0 F. 48.0 F.
Mon Jun 27 23:08:05 2022 76.0 F. 48.0 F.
Tue Jun 28 00:08:05 2022 66.0 F. 53.1 F.
Tue Jun 28 01:08:05 2022 66.0 F. 53.1 F.
Tue Jun 28 02:08:05 2022 64.0 F. 53.1 F.
Tue Jun 28 03:08:05 2022 64.0 F. 53.1 F.
Tue Jun 28 04:08:05 2022 64.0 F. 53.1 F.
Tue Jun 28 05:08:04 2022 64.0 F. 53.1 F.
Tue Jun 28 06:08:04 2022 59.0 F. 55.9 F.
Tue Jun 28 07:08:05 2022 59.0 F. 57.0 F.
Tue Jun 28 08:08:05 2022 59.0 F. 57.0 F.
Tue Jun 28 09:08:05 2022 64.0 F. 57.9 F.
Tue Jun 28 10:08:04 2022 71.0 F. 55.0 F.
Tue Jun 28 11:08:05 2022 71.0 F. 55.0 F.
Tue Jun 28 12:08:05 2022 75.0 F. 52.0 F.
Tue Jun 28 13:08:05 2022 75.0 F. 52.0 F.
Tue Jun 28 14:08:05 2022 79.0 F. 46.9 F.
Tue Jun 28 15:08:04 2022 80.0 F. 48.0 F.
Tue Jun 28 16:08:05 2022 80.0 F. 48.0 F.
Tue Jun 28 17:08:05 2022 82.0 F. 50.0 F.
Tue Jun 28 18:08:05 2022 82.0 F. 48.9 F.
Tue Jun 28 19:08:05 2022 81.0 F. 51.1 F.
Tue Jun 28 20:08:05 2022 81.0 F. 51.1 F.
Tue Jun 28 21:08:04 2022 81.0 F. 51.1 F.
Tue Jun 28 22:08:05 2022 81.0 F. 51.1 F.
Tue Jun 28 23:08:05 2022 81.0 F. 51.1 F.
Wed Jun 29 00:08:05 2022 62.0 F. 55.0 F.
Wed Jun 29 01:08:04 2022 62.0 F. 55.0 F.
Wed Jun 29 02:08:05 2022 62.0 F. 55.0 F.
Wed Jun 29 03:08:05 2022 62.0 F. 55.0 F.
Wed Jun 29 04:08:05 2022 62.0 F. 55.0 F.
Wed Jun 29 05:08:04 2022 62.0 F. 55.0 F.
Wed Jun 29 06:08:05 2022 55.0 F. 54.0 F.
Wed Jun 29 07:08:05 2022 55.0 F. 54.0 F.
Wed Jun 29 08:08:05 2022 58.0 F. 57.0 F.
Wed Jun 29 09:08:04 2022 58.0 F. 57.0 F.
Wed Jun 29 10:08:06 2022 58.0 F. 57.0 F.
Wed Jun 29 11:08:04 2022 58.0 F. 57.0 F.
Wed Jun 29 12:08:04 2022 58.0 F. 57.0 F.
Wed Jun 29 13:08:04 2022 58.0 F. 57.0 F.
Wed Jun 29 14:08:05 2022 84.0 F. 55.0 F.
Wed Jun 29 15:08:05 2022 87.0 F. 54.0 F.
Wed Jun 29 16:08:04 2022 87.0 F. 54.0 F.
Wed Jun 29 17:08:04 2022 87.0 F. 54.0 F.
Wed Jun 29 18:08:05 2022 87.0 F. 54.0 F.
Wed Jun 29 19:08:04 2022 87.0 F. 54.0 F.
Wed Jun 29 20:08:05 2022 85.0 F. 59.0 F.
Wed Jun 29 21:08:06 2022 85.0 F. 59.0 F.
Wed Jun 29 22:08:05 2022 85.0 F. 59.0 F.
Wed Jun 29 23:08:05 2022 85.0 F. 59.0 F.
Thu Jun 30 00:08:04 2022 67.0 F. 60.1 F.
Thu Jun 30 01:08:05 2022 64.0 F. 60.1 F.
Thu Jun 30 02:08:05 2022 62.0 F. 59.0 F.
Thu Jun 30 03:08:05 2022 61.0 F. 59.0 F.
Thu Jun 30 04:08:04 2022 60.0 F. 60.1 F.
Thu Jun 30 05:08:05 2022 60.0 F. 59.0 F.
Thu Jun 30 06:08:05 2022 60.0 F. 59.0 F.
Thu Jun 30 07:08:05 2022 58.0 F. 57.9 F.
Thu Jun 30 08:08:05 2022 70.0 F. 63.0 F.
Thu Jun 30 09:08:04 2022 70.0 F. 63.0 F.
Thu Jun 30 10:08:05 2022 70.0 F. 63.0 F.
Thu Jun 30 11:08:05 2022 70.0 F. 63.0 F.
Thu Jun 30 12:08:05 2022 70.0 F. 63.0 F.
Thu Jun 30 13:08:05 2022 90.0 F. 61.0 F.
Thu Jun 30 14:08:05 2022 92.0 F. 63.0 F.
Thu Jun 30 15:08:05 2022 92.0 F. 63.0 F.
Thu Jun 30 16:08:05 2022 92.0 F. 63.0 F.
Thu Jun 30 17:08:05 2022 92.0 F. 63.0 F.
Thu Jun 30 18:08:06 2022 93.0 F. 64.9 F.
Thu Jun 30 19:08:04 2022 93.0 F. 64.9 F.
Thu Jun 30 20:08:05 2022 93.0 F. 64.9 F.
Thu Jun 30 21:08:05 2022 80.0 F. 69.1 F.
Thu Jun 30 22:08:05 2022 80.0 F. 69.1 F.
Thu Jun 30 23:08:05 2022 79.0 F. 71.1 F.
Fri Jul 1 00:08:05 2022 78.0 F. 70.0 F.
Fri Jul 1 01:08:05 2022 75.0 F. 70.0 F.
Fri Jul 1 02:08:05 2022 73.0 F. 70.0 F.
Fri Jul 1 03:08:04 2022 75.0 F. 70.0 F.
Fri Jul 1 04:08:05 2022 75.0 F. 71.1 F.
Fri Jul 1 05:08:04 2022 75.0 F. 71.1 F.
Fri Jul 1 06:08:04 2022 75.0 F. 71.1 F.
Fri Jul 1 07:08:05 2022 73.0 F. 70.0 F.
Fri Jul 1 08:08:06 2022 76.0 F. 71.1 F.
Fri Jul 1 09:08:05 2022 83.0 F. 73.0 F.
Fri Jul 1 10:08:05 2022 83.0 F. 73.0 F.
Fri Jul 1 11:08:05 2022 89.0 F. 73.9 F.
Fri Jul 1 12:08:04 2022 90.0 F. 72.0 F.
Fri Jul 1 13:08:05 2022 90.0 F. 72.0 F.
Fri Jul 1 14:08:05 2022 90.0 F. 72.0 F.
Fri Jul 1 15:08:05 2022 91.0 F. 71.1 F.
Fri Jul 1 16:08:05 2022 92.0 F. 71.1 F.
Fri Jul 1 17:08:05 2022 94.0 F. 72.0 F.
Fri Jul 1 18:08:04 2022 93.0 F. 72.0 F.
Fri Jul 1 19:08:04 2022 89.0 F. 71.1 F.
Fri Jul 1 20:08:04 2022 87.0 F. 73.0 F.
Fri Jul 1 21:08:04 2022 83.0 F. 73.0 F.
Fri Jul 1 22:08:04 2022 80.0 F. 73.0 F.
Fri Jul 1 23:08:05 2022 80.0 F. 73.0 F.
Sat Jul 2 00:08:04 2022 78.0 F. 72.0 F.
Sat Jul 2 01:08:05 2022 77.0 F. 72.0 F.
Sat Jul 2 02:08:05 2022 75.0 F. 72.0 F.
Sat Jul 2 03:08:04 2022 74.0 F. 72.0 F.
Sat Jul 2 04:08:05 2022 74.0 F. 72.0 F.
Sat Jul 2 05:08:05 2022 74.0 F. 72.0 F.
Sat Jul 2 06:08:04 2022 73.0 F. 72.0 F.
Sat Jul 2 07:08:04 2022 75.0 F. 69.1 F.
Sat Jul 2 08:08:04 2022 76.0 F. 69.1 F.
Sat Jul 2 09:08:04 2022 76.0 F. 69.1 F.
Sat Jul 2 10:08:05 2022 77.0 F. 69.1 F.
Sat Jul 2 11:08:04 2022 80.0 F. 71.1 F.
Sat Jul 2 12:08:04 2022 80.0 F. 71.1 F.
Sat Jul 2 13:08:05 2022 76.0 F. 73.0 F.
Sat Jul 2 14:08:05 2022 74.0 F. 73.0 F.
Sat Jul 2 15:08:05 2022 75.0 F. 73.0 F.
Sat Jul 2 16:08:05 2022 76.0 F. 73.9 F.
Sat Jul 2 17:08:05 2022 76.0 F. 73.9 F.
Sat Jul 2 18:08:05 2022 79.0 F. 73.0 F.
Sat Jul 2 19:08:05 2022 79.0 F. 73.0 F.
Sat Jul 2 20:08:05 2022 77.0 F. 73.0 F.
Sat Jul 2 21:08:05 2022 77.0 F. 73.0 F.
Sat Jul 2 22:08:06 2022 75.0 F. 73.9 F.
Sat Jul 2 23:08:04 2022 75.0 F. 73.9 F.
Sun Jul 3 00:08:05 2022 75.0 F. 73.9 F.
Sun Jul 3 01:08:05 2022 74.0 F. 73.9 F.
Sun Jul 3 02:08:05 2022 74.0 F. 73.9 F.
Sun Jul 3 03:08:05 2022 75.0 F. 73.9 F.
Sun Jul 3 04:08:05 2022 74.0 F. 73.9 F.
Sun Jul 3 05:08:05 2022 74.0 F. 73.9 F.
Sun Jul 3 06:08:05 2022 74.0 F. 73.9 F.
Sun Jul 3 07:08:05 2022 73.0 F. 71.6 F.
Sun Jul 3 08:08:05 2022 73.0 F. 71.6 F.
Sun Jul 3 09:08:04 2022 75.0 F. 71.6 F.
Sun Jul 3 10:08:05 2022 75.0 F. 71.6 F.
Sun Jul 3 11:08:05 2022 75.0 F. 71.6 F.
Sun Jul 3 12:08:05 2022 82.0 F. 71.6 F.
Sun Jul 3 13:08:04 2022 82.0 F. 71.6 F.
Sun Jul 3 14:08:05 2022 86.0 F. 72.0 F.
Sun Jul 3 15:08:05 2022 87.0 F. 72.0 F.
Sun Jul 3 16:08:05 2022 87.0 F. 72.0 F.
Sun Jul 3 17:08:05 2022 88.0 F. 71.1 F.
Sun Jul 3 18:08:04 2022 88.0 F. 72.0 F.
Sun Jul 3 19:08:04 2022 88.0 F. 72.0 F.
Sun Jul 3 20:08:05 2022 83.0 F. 73.0 F.
Sun Jul 3 21:08:05 2022 80.0 F. 73.0 F.
Sun Jul 3 22:08:05 2022 80.0 F. 73.0 F.
Sun Jul 3 23:08:04 2022 76.0 F. 73.0 F.
Mon Jul 4 00:08:05 2022 75.0 F. 72.0 F.
Mon Jul 4 01:08:05 2022 75.0 F. 72.0 F.
Mon Jul 4 02:08:04 2022 75.0 F. 72.0 F.
Mon Jul 4 03:08:05 2022 74.0 F. 71.1 F.
Mon Jul 4 04:08:04 2022 74.0 F. 71.1 F.
Mon Jul 4 05:08:05 2022 72.0 F. 71.1 F.
Mon Jul 4 06:08:05 2022 71.0 F. 70.0 F.
Mon Jul 4 07:08:05 2022 74.0 F. 72.0 F.
Mon Jul 4 08:08:05 2022 78.0 F. 72.0 F.
Mon Jul 4 09:08:06 2022 78.0 F. 72.0 F.
Mon Jul 4 10:08:05 2022 82.0 F. 75.0 F.
Mon Jul 4 11:08:05 2022 85.0 F. 75.9 F.
Mon Jul 4 12:08:05 2022 88.0 F. 75.0 F.
Mon Jul 4 13:08:04 2022 90.0 F. 75.0 F.
Mon Jul 4 14:08:04 2022 92.0 F. 75.9 F.
Mon Jul 4 15:08:05 2022 92.0 F. 75.9 F.
Mon Jul 4 16:08:05 2022 93.0 F. 75.9 F.
Mon Jul 4 17:08:05 2022 93.0 F. 75.9 F.
Mon Jul 4 18:08:05 2022 93.0 F. 75.0 F.
Mon Jul 4 19:08:05 2022 91.0 F. 75.0 F.
Mon Jul 4 20:08:05 2022 88.0 F. 75.0 F.
Mon Jul 4 21:08:05 2022 88.0 F. 75.0 F.
Mon Jul 4 22:08:04 2022 82.0 F. 75.9 F.
Mon Jul 4 23:08:05 2022 80.0 F. 75.9 F.
Tue Jul 5 00:08:05 2022 80.0 F. 75.0 F.
Tue Jul 5 01:08:05 2022 78.0 F. 75.0 F.
Tue Jul 5 02:08:05 2022 78.0 F. 75.0 F.
Tue Jul 5 03:08:06 2022 76.0 F. 73.9 F.
Tue Jul 5 04:08:04 2022 77.0 F. 73.0 F.
Tue Jul 5 05:08:04 2022 75.0 F. 73.0 F.
Tue Jul 5 06:08:05 2022 75.0 F. 73.0 F.
Tue Jul 5 07:08:06 2022 79.0 F. 75.0 F.
Tue Jul 5 08:08:05 2022 79.0 F. 75.0 F.
Tue Jul 5 09:08:04 2022 86.0 F. 75.9 F.
Tue Jul 5 10:08:05 2022 89.0 F. 75.9 F.
Tue Jul 5 11:08:06 2022 92.0 F. 78.1 F.
Tue Jul 5 12:08:05 2022 93.0 F. 78.1 F.
Tue Jul 5 13:08:05 2022 93.0 F. 78.1 F.
Tue Jul 5 14:08:05 2022 96.0 F. 78.1 F.
Tue Jul 5 15:08:06 2022 96.0 F. 78.1 F.
Tue Jul 5 16:08:05 2022 95.0 F. 78.1 F.
Tue Jul 5 17:08:05 2022 95.0 F. 77.0 F.
Tue Jul 5 18:08:05 2022 94.0 F. 77.0 F.
Tue Jul 5 19:08:04 2022 94.0 F. 77.0 F.
Tue Jul 5 20:08:04 2022 94.0 F. 77.0 F.
Tue Jul 5 21:08:05 2022 91.0 F. 77.0 F.
Tue Jul 5 22:08:04 2022 84.0 F. 78.1 F.
Tue Jul 5 23:08:05 2022 84.0 F. 78.1 F.
Wed Jul 6 00:08:05 2022 82.0 F. 77.0 F.
Wed Jul 6 01:08:05 2022 82.0 F. 75.9 F.
Wed Jul 6 02:08:06 2022 81.0 F. 73.9 F.
Wed Jul 6 03:08:05 2022 81.0 F. 73.9 F.
Wed Jul 6 04:08:05 2022 81.0 F. 73.0 F.
Wed Jul 6 05:08:05 2022 79.0 F. 73.9 F.
Wed Jul 6 06:08:05 2022 80.0 F. 73.0 F.
Wed Jul 6 07:08:05 2022 81.0 F. 75.0 F.
Wed Jul 6 08:08:04 2022 84.0 F. 75.0 F.
Wed Jul 6 09:08:04 2022 83.0 F. 75.0 F.
Wed Jul 6 10:08:05 2022 87.0 F. 75.9 F.
Wed Jul 6 11:08:05 2022 88.0 F. 75.9 F.
Wed Jul 6 12:08:05 2022 88.0 F. 75.9 F.
Wed Jul 6 13:08:05 2022 94.0 F. 75.9 F.
Wed Jul 6 14:08:05 2022 94.0 F. 75.9 F.
Wed Jul 6 15:08:05 2022 98.0 F. 75.0 F.
Wed Jul 6 16:08:16 2022 98.0 F. 75.0 F.
Wed Jul 6 17:08:05 2022 92.0 F. 75.0 F.
Wed Jul 6 18:08:04 2022 92.0 F. 75.0 F.
Wed Jul 6 19:08:08 2022 91.0 F. 75.9 F.
Wed Jul 6 20:08:05 2022 89.0 F. 73.9 F.
Wed Jul 6 21:08:05 2022 85.0 F. 77.0 F.
Wed Jul 6 22:08:04 2022 83.0 F. 77.0 F.
Wed Jul 6 23:08:05 2022 83.0 F. 77.0 F.
Thu Jul 7 00:08:05 2022 80.0 F. 75.9 F.
Thu Jul 7 01:08:06 2022 79.0 F. 75.9 F.
Thu Jul 7 02:08:05 2022 79.0 F. 75.9 F.
Thu Jul 7 03:08:04 2022 79.0 F. 77.0 F.
Thu Jul 7 04:08:05 2022 80.0 F. 75.9 F.
Thu Jul 7 05:08:05 2022 78.0 F. 72.0 F.
Thu Jul 7 06:08:05 2022 77.0 F. 73.0 F.
Thu Jul 7 07:08:05 2022 75.0 F. 73.0 F.
Thu Jul 7 08:08:05 2022 76.0 F. 73.0 F.
Thu Jul 7 09:08:05 2022 79.0 F. 73.9 F.
Thu Jul 7 10:08:04 2022 85.0 F. 75.0 F.
Thu Jul 7 11:08:04 2022 89.0 F. 75.9 F.
Thu Jul 7 12:08:04 2022 91.0 F. 77.0 F.
Thu Jul 7 13:08:05 2022 91.0 F. 77.0 F.
Thu Jul 7 14:08:04 2022 92.0 F. 78.1 F.
Thu Jul 7 15:08:04 2022 94.0 F. 75.0 F.
Thu Jul 7 16:08:04 2022 86.0 F. 75.0 F.
Thu Jul 7 17:08:05 2022 86.0 F. 75.0 F.
Thu Jul 7 18:08:04 2022 86.0 F. 77.0 F.
Thu Jul 7 19:08:05 2022 81.0 F. 73.9 F.
Thu Jul 7 20:08:04 2022 80.0 F. 75.0 F.
Thu Jul 7 21:08:05 2022 80.0 F. 75.0 F.
Thu Jul 7 22:08:05 2022 77.0 F. 75.0 F.
Thu Jul 7 23:08:05 2022 77.0 F. 75.0 F.
Fri Jul 8 00:08:04 2022 76.0 F. 75.0 F.
Fri Jul 8 01:08:05 2022 76.0 F. 75.0 F.
Fri Jul 8 02:08:05 2022 76.0 F. 75.0 F.
Fri Jul 8 03:08:04 2022 78.0 F. 73.9 F.
Fri Jul 8 04:08:04 2022 79.0 F. 73.9 F.
Fri Jul 8 05:08:05 2022 76.0 F. 73.9 F.
Fri Jul 8 06:08:05 2022 79.0 F. 75.0 F.
Fri Jul 8 07:08:04 2022 79.0 F. 75.0 F.
Fri Jul 8 08:08:04 2022 83.0 F. 75.9 F.
Fri Jul 8 09:08:04 2022 83.0 F. 75.9 F.
Fri Jul 8 10:08:04 2022 86.0 F. 75.9 F.
Fri Jul 8 11:08:05 2022 86.0 F. 75.0 F.
Fri Jul 8 12:08:05 2022 86.0 F. 75.0 F.
Fri Jul 8 13:08:06 2022 87.0 F. 75.0 F.
Fri Jul 8 14:08:05 2022 87.0 F. 75.0 F.
Fri Jul 8 15:08:05 2022 88.0 F. 75.0 F.
Fri Jul 8 16:08:05 2022 91.0 F. 75.9 F.
Fri Jul 8 17:08:05 2022 92.0 F. 75.9 F.
Fri Jul 8 18:08:05 2022 93.0 F. 75.9 F.
Fri Jul 8 19:08:05 2022 90.0 F. 73.9 F.
Fri Jul 8 20:08:04 2022 75.0 F. 73.0 F.
Fri Jul 8 21:08:05 2022 76.0 F. 73.9 F.
Fri Jul 8 22:08:04 2022 77.0 F. 73.9 F.
Fri Jul 8 23:08:05 2022 76.0 F. 73.9 F.
Sat Jul 9 00:08:04 2022 76.0 F. 73.9 F.
Sat Jul 9 01:08:05 2022 75.0 F. 73.9 F.
Sat Jul 9 02:08:06 2022 75.0 F. 73.9 F.
Sat Jul 9 03:08:05 2022 74.0 F. 73.0 F.
Sat Jul 9 04:08:05 2022 73.0 F. 73.0 F.
Sat Jul 9 05:08:04 2022 73.0 F. 72.0 F.
Sat Jul 9 06:08:06 2022 73.0 F. 72.0 F.
Sat Jul 9 07:08:06 2022 75.0 F. 73.9 F.
Sat Jul 9 08:08:07 2022 76.0 F. 73.9 F.
Sat Jul 9 09:08:05 2022 76.0 F. 73.9 F.
Sat Jul 9 10:08:05 2022 78.0 F. 75.0 F.
Sat Jul 9 11:08:05 2022 78.0 F. 75.0 F.
Sat Jul 9 12:08:05 2022 80.0 F. 75.0 F.
Sat Jul 9 13:08:05 2022 81.0 F. 75.0 F.
Sat Jul 9 14:08:06 2022 77.0 F. 73.9 F.
Sat Jul 9 15:08:11 2022 75.0 F. 73.0 F.
Sat Jul 9 16:08:05 2022 76.0 F. 73.0 F.
Sat Jul 9 17:08:05 2022 77.0 F. 71.1 F.
Sat Jul 9 18:08:05 2022 77.0 F. 71.1 F.
Sat Jul 9 19:08:05 2022 76.0 F. 70.0 F.
Sat Jul 9 20:08:05 2022 76.0 F. 70.0 F.
Sat Jul 9 21:08:04 2022 76.0 F. 70.0 F.
Sat Jul 9 22:08:05 2022 74.0 F. 68.0 F.
Sat Jul 9 23:08:04 2022 72.0 F. 68.0 F.
Sun Jul 10 00:08:04 2022 70.0 F. 68.0 F.
Sun Jul 10 01:08:04 2022 70.0 F. 68.0 F.
Sun Jul 10 02:08:06 2022 68.0 F. 66.9 F.
Sun Jul 10 03:08:05 2022 68.0 F. 66.9 F.
Sun Jul 10 04:08:05 2022 68.0 F. 66.9 F.
Sun Jul 10 05:08:05 2022 68.0 F. 66.9 F.
Sun Jul 10 06:08:06 2022 69.0 F. 66.9 F.
Sun Jul 10 07:08:04 2022 69.0 F. 66.9 F.
Sun Jul 10 08:08:05 2022 73.0 F. 66.2 F.
Sun Jul 10 09:08:05 2022 73.0 F. 66.2 F.
Sun Jul 10 10:08:05 2022 75.0 F. 64.4 F.
Sun Jul 10 11:08:05 2022 78.0 F. 63.0 F.
Sun Jul 10 12:08:04 2022 81.0 F. 60.1 F.
Sun Jul 10 13:08:04 2022 83.0 F. 55.9 F.
Sun Jul 10 14:08:05 2022 84.0 F. 57.0 F.
Sun Jul 10 15:08:05 2022 86.0 F. 57.9 F.
Sun Jul 10 16:08:05 2022 87.0 F. 59.0 F.
Sun Jul 10 17:08:05 2022 88.0 F. 59.0 F.
Sun Jul 10 18:08:05 2022 87.0 F. 59.0 F.
Sun Jul 10 19:08:04 2022 86.0 F. 61.0 F.
Sun Jul 10 20:08:05 2022 79.0 F. 63.0 F.
Sun Jul 10 21:08:05 2022 79.0 F. 63.0 F.
Sun Jul 10 22:08:05 2022 73.0 F. 62.1 F.
Sun Jul 10 23:08:06 2022 68.0 F. 61.0 F.
Mon Jul 11 00:08:06 2022 68.0 F. 61.0 F.
Mon Jul 11 01:08:04 2022 64.0 F. 61.0 F.
Mon Jul 11 02:08:04 2022 63.0 F. 61.0 F.
Mon Jul 11 03:08:05 2022 62.0 F. 61.0 F.
Mon Jul 11 04:08:06 2022 61.0 F. 60.1 F.
Mon Jul 11 05:08:05 2022 62.0 F. 60.1 F.
Mon Jul 11 06:08:05 2022 62.0 F. 61.0 F.
Mon Jul 11 07:08:04 2022 62.0 F. 61.0 F.
Mon Jul 11 08:08:04 2022 64.0 F. 63.0 F.
Mon Jul 11 09:08:04 2022 71.0 F. 64.9 F.
Mon Jul 11 10:08:05 2022 71.0 F. 64.9 F.
Mon Jul 11 11:08:05 2022 82.0 F. 64.0 F.
Mon Jul 11 12:08:05 2022 85.0 F. 64.9 F.
Mon Jul 11 13:08:05 2022 87.0 F. 66.0 F.
Mon Jul 11 14:08:04 2022 88.0 F. 68.0 F.
Mon Jul 11 15:08:05 2022 91.0 F. 70.0 F.
Mon Jul 11 16:08:05 2022 91.0 F. 70.0 F.
Mon Jul 11 17:08:04 2022 92.0 F. 71.1 F.
Mon Jul 11 18:08:05 2022 91.0 F. 71.1 F.
Mon Jul 11 19:08:06 2022 90.0 F. 70.0 F.
Mon Jul 11 20:08:04 2022 89.0 F. 72.0 F.
Mon Jul 11 21:08:05 2022 85.0 F. 72.0 F.
Mon Jul 11 22:08:04 2022 85.0 F. 72.0 F.
Mon Jul 11 23:08:05 2022 85.0 F. 72.0 F.
Tue Jul 12 00:08:05 2022 78.0 F. 71.1 F.
Tue Jul 12 01:08:04 2022 79.0 F. 70.0 F.
Tue Jul 12 02:08:05 2022 79.0 F. 70.0 F.
Tue Jul 12 03:08:05 2022 78.0 F. 70.0 F.
Tue Jul 12 04:08:05 2022 79.0 F. 72.0 F.
Tue Jul 12 05:08:05 2022 79.0 F. 72.0 F.
Tue Jul 12 06:08:05 2022 77.0 F. 72.0 F.
Tue Jul 12 07:08:05 2022 78.0 F. 70.0 F.
Tue Jul 12 08:08:04 2022 78.0 F. 70.0 F.
Tue Jul 12 09:08:05 2022 77.0 F. 68.0 F.
Tue Jul 12 10:08:04 2022 81.0 F. 64.9 F.
Tue Jul 12 11:08:04 2022 81.0 F. 64.9 F.
Tue Jul 12 12:08:04 2022 84.0 F. 63.0 F.
Tue Jul 12 13:08:05 2022 88.0 F. 62.1 F.
Tue Jul 12 14:08:05 2022 89.0 F. 60.1 F.
Tue Jul 12 15:08:04 2022 88.0 F. 59.0 F.
Tue Jul 12 16:08:05 2022 88.0 F. 59.0 F.
Tue Jul 12 17:08:04 2022 89.0 F. 57.9 F.
Tue Jul 12 18:08:05 2022 89.0 F. 57.0 F.
Tue Jul 12 19:08:05 2022 86.0 F. 57.0 F.
Tue Jul 12 20:08:04 2022 86.0 F. 57.0 F.
Tue Jul 12 21:08:05 2022 86.0 F. 57.0 F.
Tue Jul 12 22:08:05 2022 74.0 F. 60.1 F.
Tue Jul 12 23:08:06 2022 69.0 F. 61.0 F.
Wed Jul 13 00:08:05 2022 69.0 F. 61.0 F.
Wed Jul 13 01:08:05 2022 65.0 F. 61.0 F.
Wed Jul 13 02:08:04 2022 64.0 F. 62.1 F.
Wed Jul 13 03:08:04 2022 64.0 F. 62.1 F.
Wed Jul 13 04:08:05 2022 63.0 F. 61.0 F.
Wed Jul 13 05:08:04 2022 61.0 F. 60.1 F.
Wed Jul 13 06:08:04 2022 61.0 F. 60.1 F.
Wed Jul 13 07:08:04 2022 61.0 F. 60.1 F.
Wed Jul 13 08:08:05 2022 64.0 F. 63.0 F.
Wed Jul 13 09:08:05 2022 77.0 F. 64.9 F.
Wed Jul 13 10:08:04 2022 77.0 F. 64.9 F.
Wed Jul 13 11:08:05 2022 82.0 F. 63.0 F.
Wed Jul 13 12:08:04 2022 82.0 F. 63.0 F.
Wed Jul 13 13:08:05 2022 84.0 F. 60.1 F.
Wed Jul 13 14:08:05 2022 86.0 F. 61.0 F.
Wed Jul 13 15:08:05 2022 86.0 F. 61.0 F.
Wed Jul 13 16:08:05 2022 86.0 F. 61.0 F.
Wed Jul 13 17:08:04 2022 90.0 F. 60.1 F.
Wed Jul 13 18:08:04 2022 90.0 F. 61.0 F.
Wed Jul 13 19:08:05 2022 88.0 F. 62.1 F.
Wed Jul 13 20:08:05 2022 86.0 F. 62.1 F.
Wed Jul 13 21:08:04 2022 83.0 F. 63.0 F.
Wed Jul 13 22:08:05 2022 77.0 F. 64.9 F.
Wed Jul 13 23:08:04 2022 73.0 F. 64.9 F.
Thu Jul 14 00:08:05 2022 71.0 F. 66.0 F.
Thu Jul 14 01:08:04 2022 68.0 F. 64.9 F.
Thu Jul 14 02:08:05 2022 68.0 F. 64.9 F.
Thu Jul 14 03:08:05 2022 66.0 F. 64.9 F.
Thu Jul 14 04:08:05 2022 66.0 F. 64.9 F.
Thu Jul 14 05:08:05 2022 64.0 F. 64.0 F.
Thu Jul 14 06:08:05 2022 64.0 F. 64.0 F.
Thu Jul 14 07:08:05 2022 64.0 F. 63.0 F.
Thu Jul 14 08:08:04 2022 67.0 F. 66.0 F.
Thu Jul 14 09:08:04 2022 73.0 F. 66.0 F.
Thu Jul 14 10:08:05 2022 73.0 F. 66.0 F.
Thu Jul 14 11:08:04 2022 85.0 F. 64.9 F.
Thu Jul 14 12:08:05 2022 88.0 F. 63.0 F.
Thu Jul 14 13:08:05 2022 89.0 F. 63.0 F.
Thu Jul 14 14:08:05 2022 91.0 F. 62.1 F.
Thu Jul 14 15:08:04 2022 89.0 F. 61.0 F.
Thu Jul 14 16:08:04 2022 94.0 F. 59.0 F.
Thu Jul 14 17:08:05 2022 93.0 F. 60.1 F.
Thu Jul 14 18:08:04 2022 92.0 F. 59.0 F.
Thu Jul 14 19:08:05 2022 91.0 F. 62.1 F.
Thu Jul 14 20:08:04 2022 89.0 F. 64.0 F.
Thu Jul 14 21:08:04 2022 89.0 F. 64.0 F.
Thu Jul 14 22:08:05 2022 80.0 F. 64.9 F.
Thu Jul 14 23:08:05 2022 75.0 F. 66.0 F.
Fri Jul 15 00:08:04 2022 73.0 F. 66.0 F.
Fri Jul 15 01:08:05 2022 73.0 F. 66.0 F.
Fri Jul 15 02:08:05 2022 69.0 F. 66.0 F.
Fri Jul 15 03:08:05 2022 67.0 F. 64.9 F.
Fri Jul 15 04:08:05 2022 67.0 F. 64.9 F.
Fri Jul 15 05:08:05 2022 67.0 F. 64.9 F.
Fri Jul 15 06:08:04 2022 65.0 F. 64.0 F.
Fri Jul 15 07:08:04 2022 65.0 F. 64.0 F.
Fri Jul 15 08:08:05 2022 65.0 F. 64.0 F.
Fri Jul 15 09:08:04 2022 65.0 F. 64.0 F.
Fri Jul 15 10:08:04 2022 65.0 F. 64.0 F.
Fri Jul 15 11:08:04 2022 86.0 F. 66.9 F.
Fri Jul 15 12:08:04 2022 89.0 F. 66.9 F.
Fri Jul 15 13:08:05 2022 88.0 F. 66.9 F.
Fri Jul 15 14:08:05 2022 90.0 F. 66.0 F.
Fri Jul 15 15:08:05 2022 90.0 F. 64.0 F.
Fri Jul 15 16:08:04 2022 92.0 F. 64.9 F.
Fri Jul 15 17:08:05 2022 92.0 F. 64.9 F.
Fri Jul 15 18:08:05 2022 90.0 F. 64.0 F.
Fri Jul 15 19:08:05 2022 87.0 F. 66.0 F.
Fri Jul 15 20:08:05 2022 87.0 F. 66.0 F.
Fri Jul 15 21:08:04 2022 82.0 F. 66.9 F.
Fri Jul 15 22:08:06 2022 76.0 F. 68.0 F.
Fri Jul 15 23:08:05 2022 75.0 F. 66.9 F.
Sat Jul 16 00:08:05 2022 74.0 F. 68.0 F.
Sat Jul 16 01:08:05 2022 75.0 F. 68.0 F.
Sat Jul 16 02:08:05 2022 76.0 F. 66.9 F.
Sat Jul 16 03:08:05 2022 77.0 F. 66.0 F.
Sat Jul 16 04:08:05 2022 77.0 F. 66.0 F.
Sat Jul 16 05:08:05 2022 77.0 F. 64.9 F.
Sat Jul 16 06:08:04 2022 77.0 F. 64.9 F.
Sat Jul 16 07:08:05 2022 75.0 F. 64.9 F.
Sat Jul 16 08:08:05 2022 78.0 F. 66.0 F.
Sat Jul 16 09:08:05 2022 81.0 F. 68.0 F.
Sat Jul 16 10:08:04 2022 78.0 F. 70.0 F.
Sat Jul 16 11:08:05 2022 78.0 F. 70.0 F.
Sat Jul 16 12:08:05 2022 85.0 F. 70.0 F.
Sat Jul 16 13:08:04 2022 90.0 F. 71.1 F.
Sat Jul 16 14:08:04 2022 90.0 F. 71.1 F.
Sat Jul 16 15:08:05 2022 93.0 F. 73.0 F.
Sat Jul 16 16:08:05 2022 93.0 F. 73.0 F.
Sat Jul 16 17:08:05 2022 96.0 F. 73.9 F.
Sat Jul 16 18:08:05 2022 96.0 F. 73.0 F.
Sat Jul 16 19:08:04 2022 94.0 F. 72.0 F.
Sat Jul 16 20:08:05 2022 93.0 F. 72.0 F.
Sat Jul 16 21:08:04 2022 89.0 F. 72.0 F.
Sat Jul 16 22:08:05 2022 88.0 F. 72.0 F.
Sat Jul 16 23:08:05 2022 87.0 F. 71.1 F.
Sun Jul 17 00:08:05 2022 85.0 F. 71.1 F.
Sun Jul 17 01:08:05 2022 84.0 F. 70.0 F.
Sun Jul 17 02:08:05 2022 82.0 F. 70.0 F.
Sun Jul 17 03:08:05 2022 81.0 F. 69.1 F.
Sun Jul 17 04:08:05 2022 81.0 F. 69.1 F.
Sun Jul 17 05:08:04 2022 81.0 F. 69.1 F.
Sun Jul 17 06:08:04 2022 78.0 F. 69.1 F.
Sun Jul 17 07:08:04 2022 79.0 F. 69.1 F.
Sun Jul 17 08:08:05 2022 77.0 F. 71.1 F.
Sun Jul 17 09:08:04 2022 77.0 F. 71.1 F.
Sun Jul 17 10:08:06 2022 77.0 F. 73.9 F.
Sun Jul 17 11:08:05 2022 77.0 F. 73.9 F.
Sun Jul 17 12:08:05 2022 73.0 F. 72.0 F.
Sun Jul 17 13:08:04 2022 73.0 F. 73.4 F.
Sun Jul 17 14:08:05 2022 77.0 F. 73.4 F.
Sun Jul 17 15:08:05 2022 77.0 F. 73.4 F.
Sun Jul 17 16:08:05 2022 79.0 F. 75.2 F.
Sun Jul 17 17:08:05 2022 79.0 F. 75.2 F.
Sun Jul 17 18:08:04 2022 79.0 F. 75.2 F.
Sun Jul 17 19:08:04 2022 79.0 F. 75.2 F.
Sun Jul 17 20:08:05 2022 77.0 F. 75.2 F.
Sun Jul 17 21:08:05 2022 77.0 F. 75.2 F.
Sun Jul 17 22:08:05 2022 77.0 F. 75.2 F.
Sun Jul 17 23:08:04 2022 77.0 F. 75.2 F.
Mon Jul 18 00:08:05 2022 73.0 F. 73.4 F.
Mon Jul 18 01:08:05 2022 73.0 F. 73.4 F.
Mon Jul 18 02:08:04 2022 73.0 F. 73.4 F.
Mon Jul 18 03:08:04 2022 73.0 F. 73.4 F.
Mon Jul 18 04:08:05 2022 73.0 F. 73.4 F.
Mon Jul 18 05:08:04 2022 73.0 F. 73.4 F.
Mon Jul 18 06:08:06 2022 73.0 F. 73.4 F.
Mon Jul 18 07:08:09 2022 73.0 F. 73.4 F.
Mon Jul 18 08:08:05 2022 72.0 F. 69.8 F.
Mon Jul 18 09:08:04 2022 72.0 F. 69.8 F.
Mon Jul 18 10:08:04 2022 72.0 F. 69.8 F.
Mon Jul 18 11:08:05 2022 72.0 F. 69.8 F.
Mon Jul 18 12:08:05 2022 72.0 F. 69.8 F.
Mon Jul 18 13:08:05 2022 82.0 F. 69.8 F.
Mon Jul 18 14:08:05 2022 84.0 F. 71.1 F.
Mon Jul 18 15:08:05 2022 85.0 F. 70.0 F.
Mon Jul 18 16:08:05 2022 86.0 F. 69.1 F.
Mon Jul 18 17:08:04 2022 86.0 F. 69.1 F.
Mon Jul 18 18:08:05 2022 86.0 F. 69.1 F.
Mon Jul 18 19:08:05 2022 86.0 F. 69.1 F.
Mon Jul 18 20:08:04 2022 82.0 F. 73.9 F.
Mon Jul 18 21:08:04 2022 82.0 F. 73.9 F.
Mon Jul 18 22:08:05 2022 82.0 F. 73.9 F.
Mon Jul 18 23:08:05 2022 82.0 F. 73.9 F.
Tue Jul 19 00:08:05 2022 73.0 F. 72.0 F.
Tue Jul 19 01:08:05 2022 73.0 F. 72.0 F.
Tue Jul 19 02:08:04 2022 71.0 F. 70.0 F.
Tue Jul 19 03:08:05 2022 71.0 F. 71.1 F.
Tue Jul 19 04:08:04 2022 71.0 F. 71.1 F.
Tue Jul 19 05:08:19 2022 71.0 F. 71.1 F.
Tue Jul 19 06:08:06 2022 68.0 F. 68.0 F.
Tue Jul 19 07:08:05 2022 69.0 F. 69.1 F.
Tue Jul 19 08:08:05 2022 70.0 F. 70.0 F.
Tue Jul 19 09:08:06 2022 75.0 F. 72.0 F.
Tue Jul 19 10:08:06 2022 75.0 F. 72.0 F.
Tue Jul 19 11:08:05 2022 83.0 F. 73.0 F.
Tue Jul 19 12:08:05 2022 83.0 F. 73.0 F.
Tue Jul 19 13:08:12 2022 83.0 F. 73.0 F.
Tue Jul 19 14:08:05 2022 88.0 F. 70.0 F.
Tue Jul 19 15:08:05 2022 89.0 F. 71.1 F.
Tue Jul 19 16:08:05 2022 89.0 F. 71.1 F.
Tue Jul 19 17:08:04 2022 89.0 F. 71.1 F.
Tue Jul 19 18:08:04 2022 89.0 F. 71.1 F.
Tue Jul 19 19:08:04 2022 88.0 F. 71.1 F.
Tue Jul 19 20:08:05 2022 87.0 F. 73.0 F.
Tue Jul 19 21:08:04 2022 83.0 F. 75.0 F.
Tue Jul 19 22:08:04 2022 80.0 F. 75.9 F.
Tue Jul 19 23:08:05 2022 79.0 F. 75.9 F.
Wed Jul 20 00:08:05 2022 78.0 F. 75.9 F.
Wed Jul 20 01:08:05 2022 79.0 F. 75.9 F.
Wed Jul 20 02:08:05 2022 79.0 F. 75.9 F.
Wed Jul 20 03:08:06 2022 78.0 F. 77.0 F.
Wed Jul 20 04:08:05 2022 78.0 F. 77.0 F.
Wed Jul 20 05:08:04 2022 80.0 F. 77.0 F.
Wed Jul 20 06:08:05 2022 79.0 F. 77.0 F.
Wed Jul 20 07:08:05 2022 79.0 F. 75.9 F.
Wed Jul 20 08:08:05 2022 79.0 F. 75.9 F.
Wed Jul 20 09:08:05 2022 82.0 F. 75.9 F.
Wed Jul 20 10:08:05 2022 82.0 F. 75.9 F.
Wed Jul 20 11:08:05 2022 82.0 F. 75.9 F.
Wed Jul 20 12:08:05 2022 82.0 F. 75.9 F.
Wed Jul 20 13:08:05 2022 82.0 F. 75.9 F.
Wed Jul 20 14:08:05 2022 93.0 F. 80.1 F.
Wed Jul 20 15:08:05 2022 94.0 F. 79.0 F.
Wed Jul 20 16:08:04 2022 95.0 F. 79.0 F.
Wed Jul 20 17:08:04 2022 96.0 F. 79.0 F.
Wed Jul 20 18:08:06 2022 94.0 F. 79.0 F.
Wed Jul 20 19:08:05 2022 92.0 F. 80.1 F.
Wed Jul 20 20:08:04 2022 92.0 F. 80.1 F.
Wed Jul 20 21:08:04 2022 92.0 F. 80.1 F.
Wed Jul 20 22:08:05 2022 92.0 F. 80.1 F.
Wed Jul 20 23:08:05 2022 92.0 F. 80.1 F.
Thu Jul 21 00:08:05 2022 80.0 F. 72.0 F.
Thu Jul 21 01:08:05 2022 80.0 F. 72.0 F.
Thu Jul 21 02:08:04 2022 80.0 F. 72.0 F.
Thu Jul 21 03:08:04 2022 73.0 F. 69.1 F.
Thu Jul 21 04:08:05 2022 71.0 F. 68.0 F.
Thu Jul 21 05:08:05 2022 70.0 F. 68.0 F.
Thu Jul 21 06:08:04 2022 69.0 F. 66.9 F.
Thu Jul 21 07:08:04 2022 69.0 F. 68.0 F.
Thu Jul 21 08:08:06 2022 69.0 F. 68.0 F.
Thu Jul 21 09:08:07 2022 80.0 F. 71.1 F.
Thu Jul 21 10:08:05 2022 80.0 F. 71.1 F.
Thu Jul 21 11:08:04 2022 83.0 F. 70.0 F.
Thu Jul 21 12:08:04 2022 83.0 F. 70.0 F.
Thu Jul 21 13:08:05 2022 88.0 F. 64.0 F.
Thu Jul 21 14:08:05 2022 90.0 F. 64.0 F.
Thu Jul 21 15:08:05 2022 91.0 F. 64.9 F.
Thu Jul 21 16:08:04 2022 92.0 F. 64.9 F.
Thu Jul 21 17:08:05 2022 91.0 F. 66.9 F.
Thu Jul 21 18:08:04 2022 91.0 F. 66.9 F.
Thu Jul 21 19:08:04 2022 91.0 F. 66.9 F.
Thu Jul 21 20:08:05 2022 91.0 F. 66.9 F.
Thu Jul 21 21:08:05 2022 83.0 F. 73.0 F.
Thu Jul 21 22:08:05 2022 78.0 F. 72.0 F.
Thu Jul 21 23:08:05 2022 77.0 F. 72.0 F.
Fri Jul 22 00:08:05 2022 76.0 F. 71.1 F.
Fri Jul 22 01:08:05 2022 74.0 F. 70.0 F.
Fri Jul 22 02:08:05 2022 73.0 F. 70.0 F.
Fri Jul 22 03:08:04 2022 73.0 F. 70.0 F.
Fri Jul 22 04:08:07 2022 74.0 F. 69.1 F.
Fri Jul 22 05:08:04 2022 74.0 F. 69.1 F.
Fri Jul 22 06:08:05 2022 74.0 F. 69.1 F.
Fri Jul 22 07:08:05 2022 74.0 F. 69.1 F.
Fri Jul 22 08:08:04 2022 72.0 F. 69.1 F.
Fri Jul 22 09:08:05 2022 72.0 F. 69.1 F.
Fri Jul 22 10:08:05 2022 72.0 F. 69.1 F.
Fri Jul 22 11:08:05 2022 84.0 F. 70.0 F.
Fri Jul 22 12:08:05 2022 84.0 F. 70.0 F.
Fri Jul 22 13:08:04 2022 89.0 F. 72.0 F.
Fri Jul 22 14:08:05 2022 92.0 F. 75.0 F.
Fri Jul 22 15:08:05 2022 92.0 F. 75.0 F.
Fri Jul 22 16:08:05 2022 92.0 F. 75.0 F.
Fri Jul 22 17:08:05 2022 93.0 F. 75.0 F.
Fri Jul 22 18:08:05 2022 93.0 F. 75.0 F.
Fri Jul 22 19:08:04 2022 93.0 F. 75.0 F.
Fri Jul 22 20:08:04 2022 91.0 F. 78.1 F.
Fri Jul 22 21:08:05 2022 91.0 F. 78.1 F.
Fri Jul 22 22:08:05 2022 83.0 F. 75.9 F.
Fri Jul 22 23:08:05 2022 82.0 F. 75.0 F.
Sat Jul 23 00:08:05 2022 80.0 F. 73.9 F.
Sat Jul 23 01:08:04 2022 80.0 F. 73.9 F.
Sat Jul 23 02:08:05 2022 80.0 F. 73.9 F.
Sat Jul 23 03:08:05 2022 80.0 F. 73.9 F.
Sat Jul 23 04:08:05 2022 76.0 F. 71.1 F.
Sat Jul 23 05:08:05 2022 77.0 F. 71.1 F.
Sat Jul 23 06:08:05 2022 77.0 F. 71.1 F.
Sat Jul 23 07:08:07 2022 76.0 F. 71.1 F.
Sat Jul 23 08:08:04 2022 76.0 F. 71.1 F.
Sat Jul 23 09:08:05 2022 81.0 F. 73.0 F.
Sat Jul 23 10:08:05 2022 84.0 F. 73.9 F.
Sat Jul 23 11:08:05 2022 86.0 F. 73.9 F.
Sat Jul 23 12:08:05 2022 89.0 F. 75.9 F.
Sat Jul 23 13:08:05 2022 90.0 F. 77.0 F.
Sat Jul 23 14:08:05 2022 92.0 F. 73.9 F.
Sat Jul 23 15:08:04 2022 92.0 F. 75.0 F.
Sat Jul 23 16:08:04 2022 92.0 F. 75.0 F.
Sat Jul 23 17:08:05 2022 92.0 F. 75.0 F.
Sat Jul 23 18:08:04 2022 92.0 F. 73.0 F.
Sat Jul 23 19:08:04 2022 91.0 F. 73.9 F.
Sat Jul 23 20:08:05 2022 90.0 F. 75.0 F.
Sat Jul 23 21:08:05 2022 86.0 F. 73.0 F.
Sat Jul 23 22:08:04 2022 82.0 F. 73.9 F.
Sat Jul 23 23:08:05 2022 81.0 F. 73.9 F.
Sun Jul 24 00:08:05 2022 79.0 F. 73.0 F.
Sun Jul 24 01:08:14 2022 75.0 F. 73.0 F.
Sun Jul 24 02:08:04 2022 75.0 F. 73.0 F.
Sun Jul 24 03:08:05 2022 76.0 F. 73.0 F.
Sun Jul 24 04:08:06 2022 76.0 F. 72.0 F.
Sun Jul 24 05:08:08 2022 76.0 F. 72.0 F.
Sun Jul 24 06:08:04 2022 76.0 F. 72.0 F.
Sun Jul 24 07:08:05 2022 76.0 F. 72.0 F.
Sun Jul 24 08:08:05 2022 76.0 F. 72.0 F.
Sun Jul 24 09:08:04 2022 84.0 F. 75.2 F.
Sun Jul 24 10:08:04 2022 84.0 F. 75.2 F.
Sun Jul 24 11:08:05 2022 84.0 F. 75.2 F.
Sun Jul 24 12:08:05 2022 84.0 F. 75.2 F.
Sun Jul 24 13:08:06 2022 84.0 F. 75.2 F.
Sun Jul 24 14:08:06 2022 92.0 F. 77.0 F.
Sun Jul 24 15:08:06 2022 92.0 F. 73.9 F.
Sun Jul 24 16:08:05 2022 93.0 F. 73.9 F.
Sun Jul 24 17:08:05 2022 94.0 F. 75.9 F.
Sun Jul 24 18:08:04 2022 94.0 F. 75.9 F.
Sun Jul 24 19:08:05 2022 93.0 F. 73.0 F.
Sun Jul 24 20:08:05 2022 90.0 F. 72.0 F.
Sun Jul 24 21:08:04 2022 90.0 F. 72.0 F.
Sun Jul 24 22:08:05 2022 81.0 F. 75.9 F.
Sun Jul 24 23:08:05 2022 80.0 F. 75.0 F.
Mon Jul 25 00:08:04 2022 79.0 F. 75.0 F.
Mon Jul 25 01:08:05 2022 79.0 F. 73.9 F.
Mon Jul 25 02:08:04 2022 79.0 F. 73.9 F.
Mon Jul 25 03:08:04 2022 78.0 F. 75.9 F.
Mon Jul 25 04:08:04 2022 78.0 F. 75.9 F.
Mon Jul 25 05:08:04 2022 78.0 F. 77.0 F.
Mon Jul 25 06:08:05 2022 78.0 F. 77.0 F.
Mon Jul 25 07:08:05 2022 77.0 F. 75.0 F.
Mon Jul 25 08:08:04 2022 76.0 F. 73.9 F.
Mon Jul 25 09:08:05 2022 76.0 F. 73.9 F.
Mon Jul 25 10:08:04 2022 76.0 F. 73.9 F.
Mon Jul 25 11:08:05 2022 76.0 F. 73.9 F.
Mon Jul 25 12:08:05 2022 74.0 F. 72.0 F.
Mon Jul 25 13:08:04 2022 73.0 F. 71.6 F.
Mon Jul 25 14:08:06 2022 73.0 F. 71.6 F.
Mon Jul 25 15:08:04 2022 73.0 F. 71.6 F.
Mon Jul 25 16:08:05 2022 82.0 F. 69.8 F.
Mon Jul 25 17:08:05 2022 82.0 F. 69.8 F.
Mon Jul 25 18:08:05 2022 81.0 F. 69.8 F.
Mon Jul 25 19:08:04 2022 80.0 F. 71.1 F.
Mon Jul 25 20:08:05 2022 80.0 F. 71.1 F.
Mon Jul 25 21:08:04 2022 77.0 F. 70.0 F.
Mon Jul 25 22:08:04 2022 76.0 F. 68.0 F.
Mon Jul 25 23:08:04 2022 75.0 F. 70.0 F.
Tue Jul 26 00:08:05 2022 74.0 F. 69.1 F.
Tue Jul 26 01:08:05 2022 74.0 F. 68.0 F.
Tue Jul 26 02:08:04 2022 74.0 F. 68.0 F.
Tue Jul 26 03:08:05 2022 74.0 F. 68.0 F.
Tue Jul 26 04:08:06 2022 74.0 F. 68.0 F.
Tue Jul 26 05:08:06 2022 74.0 F. 68.0 F.
Tue Jul 26 06:08:04 2022 74.0 F. 68.0 F.
Tue Jul 26 07:08:05 2022 67.0 F. 64.0 F.
Tue Jul 26 08:08:04 2022 67.0 F. 64.0 F.
Tue Jul 26 09:08:05 2022 68.0 F. 66.9 F.
Tue Jul 26 10:08:05 2022 69.0 F. 68.0 F.
Tue Jul 26 11:08:05 2022 70.0 F. 69.1 F.
Tue Jul 26 12:08:05 2022 71.0 F. 70.0 F.
Tue Jul 26 13:08:07 2022 72.0 F. 71.1 F.
Tue Jul 26 14:08:05 2022 72.0 F. 71.1 F.
Tue Jul 26 15:08:05 2022 83.0 F. 75.0 F.
Tue Jul 26 16:08:04 2022 86.0 F. 75.0 F.
Tue Jul 26 17:08:05 2022 86.0 F. 75.0 F.
Tue Jul 26 18:08:05 2022 85.0 F. 75.0 F.
Tue Jul 26 19:08:04 2022 85.0 F. 75.0 F.
Tue Jul 26 20:08:04 2022 85.0 F. 75.0 F.
Tue Jul 26 21:08:04 2022 82.0 F. 78.1 F.
Tue Jul 26 22:08:05 2022 78.0 F. 75.9 F.
Tue Jul 26 23:08:04 2022 79.0 F. 75.9 F.
Wed Jul 27 00:08:04 2022 79.0 F. 75.9 F.
Wed Jul 27 01:08:05 2022 79.0 F. 75.9 F.
Wed Jul 27 02:08:05 2022 79.0 F. 75.9 F.
Wed Jul 27 03:08:04 2022 78.0 F. 75.0 F.
Wed Jul 27 04:08:04 2022 78.0 F. 75.0 F.
Wed Jul 27 05:08:05 2022 78.0 F. 75.0 F.
Wed Jul 27 06:08:05 2022 82.0 F. 73.9 F.
Wed Jul 27 07:08:04 2022 82.0 F. 73.9 F.
Wed Jul 27 08:08:05 2022 82.0 F. 73.9 F.
Wed Jul 27 09:08:04 2022 74.0 F. 72.0 F.
Wed Jul 27 10:08:05 2022 76.0 F. 73.0 F.
Wed Jul 27 11:08:05 2022 80.0 F. 72.0 F.
Wed Jul 27 12:08:05 2022 81.0 F. 70.0 F.
Wed Jul 27 13:08:04 2022 84.0 F. 71.1 F.
Wed Jul 27 14:08:05 2022 86.0 F. 71.1 F.
Wed Jul 27 15:08:05 2022 86.0 F. 72.0 F.
Wed Jul 27 16:08:04 2022 86.0 F. 72.0 F.
Wed Jul 27 17:08:06 2022 88.0 F. 72.0 F.
Wed Jul 27 18:08:05 2022 87.0 F. 73.0 F.
Wed Jul 27 19:08:04 2022 88.0 F. 75.0 F.
Wed Jul 27 20:08:05 2022 88.0 F. 75.0 F.
Wed Jul 27 21:08:05 2022 88.0 F. 75.0 F.
Wed Jul 27 22:08:05 2022 78.0 F. 75.0 F.
Wed Jul 27 23:08:05 2022 77.0 F. 75.9 F.
Thu Jul 28 00:08:05 2022 77.0 F. 75.9 F.
Thu Jul 28 01:08:05 2022 77.0 F. 75.9 F.
Thu Jul 28 02:08:04 2022 77.0 F. 75.9 F.
Thu Jul 28 03:08:05 2022 77.0 F. 75.0 F.
Thu Jul 28 04:08:04 2022 76.0 F. 73.9 F.
Thu Jul 28 05:08:05 2022 75.0 F. 73.0 F.
Thu Jul 28 06:08:04 2022 74.0 F. 73.0 F.
Thu Jul 28 07:08:04 2022 73.0 F. 73.0 F.
Thu Jul 28 08:08:05 2022 73.0 F. 73.0 F.
Thu Jul 28 09:08:04 2022 73.0 F. 73.0 F.
Thu Jul 28 10:08:06 2022 77.0 F. 73.9 F.
Thu Jul 28 11:08:04 2022 81.0 F. 75.0 F.
Thu Jul 28 12:08:05 2022 83.0 F. 75.0 F.
Thu Jul 28 13:08:04 2022 83.0 F. 73.9 F.
Thu Jul 28 14:08:05 2022 85.0 F. 75.0 F.
Thu Jul 28 15:08:04 2022 83.0 F. 73.9 F.
Thu Jul 28 16:08:05 2022 84.0 F. 75.9 F.
Thu Jul 28 17:08:05 2022 81.0 F. 75.9 F.
Thu Jul 28 18:08:04 2022 73.0 F. 71.1 F.
Thu Jul 28 19:08:06 2022 73.0 F. 71.1 F.
Thu Jul 28 20:08:04 2022 73.0 F. 71.1 F.
Thu Jul 28 21:08:05 2022 73.0 F. 71.1 F.
Thu Jul 28 22:08:04 2022 72.0 F. 71.1 F.
Thu Jul 28 23:08:06 2022 72.0 F. 71.1 F.
Fri Jul 29 00:08:05 2022 71.0 F. 71.1 F.
Fri Jul 29 01:08:05 2022 71.0 F. 71.1 F.
Fri Jul 29 02:08:04 2022 70.0 F. 69.1 F.
Fri Jul 29 03:08:04 2022 70.0 F. 69.1 F.
Fri Jul 29 04:08:05 2022 70.0 F. 69.1 F.
Fri Jul 29 05:08:04 2022 70.0 F. 69.1 F.
Fri Jul 29 06:08:05 2022 71.0 F. 70.0 F.
Fri Jul 29 07:08:05 2022 71.0 F. 70.0 F.
Fri Jul 29 08:08:05 2022 71.0 F. 70.0 F.
Fri Jul 29 09:08:05 2022 71.0 F. 69.1 F.
Fri Jul 29 10:08:05 2022 73.0 F. 68.0 F.
Fri Jul 29 11:08:04 2022 75.0 F. 66.9 F.
Fri Jul 29 12:08:05 2022 78.0 F. 66.9 F.
Fri Jul 29 13:08:04 2022 80.0 F. 63.0 F.
Fri Jul 29 14:08:05 2022 82.0 F. 63.0 F.
Fri Jul 29 15:08:05 2022 83.0 F. 64.9 F.
Fri Jul 29 16:08:04 2022 83.0 F. 62.1 F.
Fri Jul 29 17:08:05 2022 83.0 F. 62.1 F.
Fri Jul 29 18:08:04 2022 82.0 F. 63.0 F.
Fri Jul 29 19:08:05 2022 82.0 F. 63.0 F.
Fri Jul 29 20:08:05 2022 77.0 F. 63.0 F.
Fri Jul 29 21:08:04 2022 75.0 F. 63.0 F.
Fri Jul 29 22:08:05 2022 75.0 F. 63.0 F.
Fri Jul 29 23:08:05 2022 75.0 F. 63.0 F.
Sat Jul 30 00:08:05 2022 66.0 F. 64.9 F.
Sat Jul 30 01:08:04 2022 66.0 F. 64.0 F.
Sat Jul 30 02:08:05 2022 65.0 F. 64.0 F.
Sat Jul 30 03:08:04 2022 65.0 F. 64.0 F.
Sat Jul 30 04:08:05 2022 67.0 F. 64.9 F.
Sat Jul 30 05:08:05 2022 67.0 F. 64.9 F.
Sat Jul 30 06:08:05 2022 67.0 F. 66.0 F.
Sat Jul 30 07:08:04 2022 66.0 F. 66.0 F.
Sat Jul 30 08:08:04 2022 67.0 F. 66.0 F.
Sat Jul 30 09:08:05 2022 69.0 F. 66.9 F.
Sat Jul 30 10:08:05 2022 69.0 F. 66.9 F.
Sat Jul 30 11:08:04 2022 69.0 F. 66.9 F.
Sat Jul 30 12:08:05 2022 75.0 F. 66.0 F.
Sat Jul 30 13:08:05 2022 75.0 F. 66.0 F.
Sat Jul 30 14:08:04 2022 80.0 F. 64.9 F.
Sat Jul 30 15:08:05 2022 80.0 F. 64.9 F.
Sat Jul 30 16:08:05 2022 78.0 F. 64.0 F.
Sat Jul 30 17:08:04 2022 80.0 F. 64.9 F.
Sat Jul 30 18:08:05 2022 80.0 F. 64.9 F.
Sat Jul 30 19:08:05 2022 80.0 F. 64.9 F.
Sat Jul 30 20:08:05 2022 76.0 F. 64.9 F.
Sat Jul 30 21:08:05 2022 73.0 F. 66.9 F.
Sat Jul 30 22:08:05 2022 73.0 F. 66.9 F.
Sat Jul 30 23:08:05 2022 73.0 F. 66.9 F.
Sun Jul 31 00:08:06 2022 73.0 F. 66.0 F.
Sun Jul 31 01:08:05 2022 73.0 F. 66.0 F.
Sun Jul 31 02:08:04 2022 73.0 F. 66.0 F.
Sun Jul 31 03:08:06 2022 70.0 F. 66.9 F.
Sun Jul 31 04:08:05 2022 71.0 F. 68.0 F.
Sun Jul 31 05:08:05 2022 70.0 F. 69.1 F.
Sun Jul 31 06:08:04 2022 70.0 F. 69.1 F.
Sun Jul 31 07:08:05 2022 70.0 F. 68.0 F.
Sun Jul 31 08:08:05 2022 70.0 F. 68.0 F.
Sun Jul 31 09:08:05 2022 70.0 F. 68.0 F.
Sun Jul 31 10:08:05 2022 72.0 F. 68.0 F.
Sun Jul 31 11:08:05 2022 73.0 F. 68.0 F.
Sun Jul 31 12:08:04 2022 73.0 F. 68.0 F.
Sun Jul 31 13:08:05 2022 73.0 F. 68.0 F.
Sun Jul 31 14:08:05 2022 79.0 F. 71.1 F.
Sun Jul 31 15:08:04 2022 81.0 F. 72.0 F.
Sun Jul 31 16:08:05 2022 80.0 F. 73.0 F.
Sun Jul 31 17:08:05 2022 79.0 F. 72.0 F.
Sun Jul 31 18:08:05 2022 79.0 F. 72.0 F.
Sun Jul 31 19:08:05 2022 80.0 F. 72.0 F.
Sun Jul 31 20:08:05 2022 79.0 F. 72.0 F.
Sun Jul 31 21:08:05 2022 75.0 F. 73.0 F.
Sun Jul 31 22:08:04 2022 74.0 F. 72.0 F.
Sun Jul 31 23:08:05 2022 74.0 F. 73.0 F.
Mon Aug 1 00:08:04 2022 75.0 F. 73.0 F.
Mon Aug 1 01:08:05 2022 75.0 F. 73.0 F.
Mon Aug 1 02:08:05 2022 75.0 F. 73.0 F.
Mon Aug 1 03:08:05 2022 76.0 F. 73.0 F.
Mon Aug 1 04:08:05 2022 76.0 F. 73.0 F.
Mon Aug 1 05:08:05 2022 75.0 F. 73.0 F.
Mon Aug 1 06:08:05 2022 74.0 F. 72.0 F.
Mon Aug 1 07:08:04 2022 75.0 F. 73.0 F.
Mon Aug 1 08:08:04 2022 75.0 F. 73.0 F.
Mon Aug 1 09:08:05 2022 77.0 F. 73.0 F.
Mon Aug 1 10:08:05 2022 74.0 F. 72.0 F.
Mon Aug 1 11:08:05 2022 74.0 F. 72.0 F.
Mon Aug 1 12:08:05 2022 86.0 F. 75.0 F.
Mon Aug 1 13:08:04 2022 87.0 F. 75.9 F.
Mon Aug 1 14:08:05 2022 74.0 F. 72.0 F.
Mon Aug 1 15:08:04 2022 88.0 F. 77.0 F.
Mon Aug 1 16:08:05 2022 90.0 F. 78.1 F.
Mon Aug 1 17:08:04 2022 90.0 F. 78.1 F.
Mon Aug 1 18:08:04 2022 90.0 F. 78.1 F.
Mon Aug 1 19:08:05 2022 88.0 F. 78.1 F.
Mon Aug 1 20:08:05 2022 88.0 F. 78.1 F.
Mon Aug 1 21:08:05 2022 85.0 F. 78.1 F.
Mon Aug 1 22:08:05 2022 83.0 F. 78.1 F.
Mon Aug 1 23:08:05 2022 83.0 F. 78.1 F.
Tue Aug 2 00:08:04 2022 83.0 F. 78.1 F.
Tue Aug 2 01:08:05 2022 81.0 F. 77.0 F.
Tue Aug 2 02:08:05 2022 81.0 F. 77.0 F.
Tue Aug 2 03:08:05 2022 77.0 F. 70.0 F.
Tue Aug 2 04:08:04 2022 72.0 F. 66.9 F.
Tue Aug 2 05:08:05 2022 71.0 F. 66.0 F.
Tue Aug 2 06:08:04 2022 71.0 F. 64.9 F.
Tue Aug 2 07:08:05 2022 72.0 F. 64.0 F.
Tue Aug 2 08:08:05 2022 72.0 F. 64.0 F.
Tue Aug 2 09:08:04 2022 74.0 F. 66.0 F.
Tue Aug 2 10:08:05 2022 76.0 F. 68.0 F.
Tue Aug 2 11:08:05 2022 76.0 F. 68.0 F.
Tue Aug 2 12:08:04 2022 81.0 F. 69.1 F.
Tue Aug 2 13:08:04 2022 85.0 F. 71.1 F.
Tue Aug 2 14:08:04 2022 85.0 F. 71.1 F.
Tue Aug 2 15:08:04 2022 77.0 F. 70.0 F.
Tue Aug 2 16:08:05 2022 81.0 F. 72.0 F.
Tue Aug 2 17:08:05 2022 82.0 F. 71.1 F.
Tue Aug 2 18:08:05 2022 83.0 F. 72.0 F.
Tue Aug 2 19:08:05 2022 83.0 F. 72.0 F.
Tue Aug 2 20:08:05 2022 83.0 F. 73.0 F.
Tue Aug 2 21:08:05 2022 76.0 F. 71.1 F.
Tue Aug 2 22:08:04 2022 76.0 F. 71.1 F.
Tue Aug 2 23:08:05 2022 76.0 F. 70.0 F.
Wed Aug 3 00:08:05 2022 77.0 F. 73.0 F.
Wed Aug 3 01:08:05 2022 77.0 F. 75.0 F.
Wed Aug 3 02:08:04 2022 76.0 F. 73.9 F.
Wed Aug 3 03:08:05 2022 76.0 F. 73.9 F.
Wed Aug 3 04:08:05 2022 77.0 F. 75.0 F.
Wed Aug 3 05:08:04 2022 76.0 F. 73.9 F.
Wed Aug 3 06:08:05 2022 76.0 F. 73.9 F.
Wed Aug 3 07:08:05 2022 77.0 F. 75.0 F.
Wed Aug 3 08:08:05 2022 79.0 F. 75.9 F.
Wed Aug 3 09:08:05 2022 82.0 F. 77.0 F.
Wed Aug 3 10:08:04 2022 85.0 F. 77.0 F.
Wed Aug 3 11:08:05 2022 88.0 F. 77.0 F.
Wed Aug 3 12:08:05 2022 88.0 F. 77.0 F.
Wed Aug 3 13:08:05 2022 89.0 F. 77.0 F.
Wed Aug 3 14:08:05 2022 90.0 F. 75.9 F.
Wed Aug 3 15:08:04 2022 91.0 F. 75.9 F.
Wed Aug 3 16:08:04 2022 91.0 F. 75.9 F.
Wed Aug 3 17:08:05 2022 90.0 F. 73.0 F.
Wed Aug 3 18:08:04 2022 88.0 F. 73.9 F.
Wed Aug 3 19:08:05 2022 86.0 F. 75.0 F.
Wed Aug 3 20:08:05 2022 83.0 F. 75.0 F.
Wed Aug 3 21:08:04 2022 80.0 F. 71.1 F.
Wed Aug 3 22:08:05 2022 80.0 F. 71.1 F.
Wed Aug 3 23:08:05 2022 77.0 F. 73.9 F.
Thu Aug 4 00:08:05 2022 77.0 F. 73.9 F.
Thu Aug 4 01:08:05 2022 80.0 F. 75.9 F.
Thu Aug 4 02:08:05 2022 77.0 F. 75.9 F.
Thu Aug 4 03:08:05 2022 73.0 F. 72.0 F.
Thu Aug 4 04:08:05 2022 72.0 F. 72.0 F.
Thu Aug 4 05:08:05 2022 72.0 F. 71.1 F.
Thu Aug 4 06:08:05 2022 72.0 F. 71.1 F.
Thu Aug 4 07:08:05 2022 72.0 F. 72.0 F.
Thu Aug 4 08:08:06 2022 73.0 F. 72.0 F.
Thu Aug 4 09:08:04 2022 73.0 F. 72.0 F.
Thu Aug 4 10:08:05 2022 73.0 F. 72.0 F.
Thu Aug 4 11:08:05 2022 73.0 F. 72.0 F.
Thu Aug 4 12:08:06 2022 76.0 F. 73.9 F.
Thu Aug 4 13:08:06 2022 76.0 F. 73.9 F.
Thu Aug 4 14:08:05 2022 77.0 F. 73.9 F.
Thu Aug 4 15:08:05 2022 78.0 F. 73.9 F.
Thu Aug 4 16:08:05 2022 78.0 F. 75.0 F.
Thu Aug 4 17:08:05 2022 78.0 F. 73.9 F.
Thu Aug 4 18:08:06 2022 78.0 F. 73.9 F.
Thu Aug 4 19:08:05 2022 79.0 F. 73.9 F.
Thu Aug 4 20:08:05 2022 75.0 F. 73.0 F.
Thu Aug 4 21:08:05 2022 75.0 F. 73.0 F.
Thu Aug 4 22:08:05 2022 75.0 F. 73.0 F.
Thu Aug 4 23:08:05 2022 75.0 F. 73.0 F.
Fri Aug 5 00:08:05 2022 74.0 F. 73.0 F.
Fri Aug 5 01:08:04 2022 73.0 F. 72.0 F.
Fri Aug 5 02:08:05 2022 73.0 F. 72.0 F.
Fri Aug 5 03:08:04 2022 74.0 F. 73.0 F.
Fri Aug 5 04:08:05 2022 74.0 F. 73.0 F.
Fri Aug 5 05:08:04 2022 74.0 F. 73.0 F.
Fri Aug 5 06:08:05 2022 74.0 F. 73.0 F.
Fri Aug 5 07:08:05 2022 74.0 F. 73.0 F.
Fri Aug 5 08:08:05 2022 74.0 F. 73.0 F.
Fri Aug 5 09:08:05 2022 74.0 F. 73.0 F.
Fri Aug 5 10:08:06 2022 79.0 F. 75.0 F.
Fri Aug 5 11:08:05 2022 81.0 F. 75.0 F.
Fri Aug 5 12:08:05 2022 84.0 F. 75.9 F.
Fri Aug 5 13:08:05 2022 85.0 F. 75.0 F.
Fri Aug 5 14:08:05 2022 87.0 F. 75.9 F.
Fri Aug 5 15:08:04 2022 87.0 F. 75.9 F.
Fri Aug 5 16:08:05 2022 80.0 F. 73.9 F.
Fri Aug 5 17:08:05 2022 84.0 F. 77.0 F.
Fri Aug 5 18:08:05 2022 84.0 F. 77.0 F.
Fri Aug 5 19:08:05 2022 84.0 F. 75.0 F.
Fri Aug 5 20:08:04 2022 81.0 F. 75.0 F.
Fri Aug 5 21:08:05 2022 79.0 F. 75.9 F.
Fri Aug 5 22:08:05 2022 78.0 F. 75.0 F.
Fri Aug 5 23:08:05 2022 78.0 F. 75.0 F.
Sat Aug 6 00:08:05 2022 76.0 F. 73.9 F.
Sat Aug 6 01:08:04 2022 75.0 F. 73.9 F.
Sat Aug 6 02:08:05 2022 75.0 F. 73.9 F.
Sat Aug 6 03:08:05 2022 74.0 F. 73.0 F.
Sat Aug 6 04:08:04 2022 74.0 F. 73.0 F.
Sat Aug 6 05:08:05 2022 73.0 F. 73.0 F.
Sat Aug 6 06:08:05 2022 73.0 F. 73.0 F.
Sat Aug 6 07:08:05 2022 73.0 F. 72.0 F.
Sat Aug 6 08:08:05 2022 79.0 F. 75.0 F.
Sat Aug 6 09:08:05 2022 82.0 F. 75.0 F.
Sat Aug 6 10:08:04 2022 85.0 F. 75.0 F.
Sat Aug 6 11:08:04 2022 86.0 F. 75.0 F.
Sat Aug 6 12:08:05 2022 88.0 F. 75.0 F.
Sat Aug 6 13:08:05 2022 89.0 F. 77.0 F.
Sat Aug 6 14:08:04 2022 89.0 F. 77.0 F.
Sat Aug 6 15:08:04 2022 90.0 F. 75.0 F.
Sat Aug 6 16:08:04 2022 89.0 F. 75.0 F.
Sat Aug 6 17:08:05 2022 89.0 F. 75.0 F.
Sat Aug 6 18:08:05 2022 88.0 F. 75.0 F.
Sat Aug 6 19:08:05 2022 86.0 F. 75.0 F.
Sat Aug 6 20:08:05 2022 86.0 F. 75.0 F.
Sat Aug 6 21:08:06 2022 81.0 F. 73.9 F.
Sat Aug 6 22:08:05 2022 79.0 F. 73.9 F.
Sat Aug 6 23:08:04 2022 78.0 F. 73.0 F.
Sun Aug 7 00:08:05 2022 75.0 F. 73.0 F.
Sun Aug 7 01:08:04 2022 74.0 F. 72.0 F.
Sun Aug 7 02:08:04 2022 75.0 F. 73.0 F.
Sun Aug 7 03:08:05 2022 75.0 F. 73.0 F.
Sun Aug 7 04:08:04 2022 75.0 F. 73.0 F.
Sun Aug 7 05:08:05 2022 72.0 F. 71.1 F.
Sun Aug 7 06:08:05 2022 73.0 F. 72.0 F.
Sun Aug 7 07:08:05 2022 74.0 F. 72.0 F.
Sun Aug 7 08:08:04 2022 80.0 F. 75.0 F.
Sun Aug 7 09:08:04 2022 83.0 F. 75.0 F.
Sun Aug 7 10:08:05 2022 86.0 F. 75.0 F.
Sun Aug 7 11:08:04 2022 87.0 F. 75.9 F.
Sun Aug 7 12:08:04 2022 87.0 F. 75.9 F.
Sun Aug 7 13:08:04 2022 89.0 F. 77.0 F.
Sun Aug 7 14:08:05 2022 89.0 F. 75.9 F.
Sun Aug 7 15:08:05 2022 89.0 F. 75.9 F.
Sun Aug 7 16:08:04 2022 90.0 F. 75.9 F.
Sun Aug 7 17:08:05 2022 89.0 F. 73.9 F.
Sun Aug 7 18:08:04 2022 84.0 F. 70.0 F.
Sun Aug 7 19:08:05 2022 86.0 F. 71.1 F.
Sun Aug 7 20:08:05 2022 80.0 F. 71.1 F.
Sun Aug 7 21:08:05 2022 77.0 F. 71.1 F.
Sun Aug 7 22:08:05 2022 74.0 F. 72.0 F.
Sun Aug 7 23:08:05 2022 74.0 F. 71.1 F.
Mon Aug 8 00:08:05 2022 74.0 F. 71.1 F.
Mon Aug 8 01:08:05 2022 73.0 F. 71.1 F.
Mon Aug 8 02:08:05 2022 74.0 F. 71.1 F.
Mon Aug 8 03:08:05 2022 74.0 F. 72.0 F.
Mon Aug 8 04:08:05 2022 75.0 F. 73.9 F.
Mon Aug 8 05:08:05 2022 75.0 F. 73.9 F.
Mon Aug 8 06:08:05 2022 74.0 F. 73.0 F.
Mon Aug 8 07:08:04 2022 74.0 F. 73.0 F.
Mon Aug 8 08:08:04 2022 77.0 F. 73.9 F.
Mon Aug 8 09:08:05 2022 80.0 F. 75.0 F.
Mon Aug 8 10:08:05 2022 85.0 F. 75.0 F.
Mon Aug 8 11:08:04 2022 85.0 F. 75.0 F.
Mon Aug 8 12:08:05 2022 87.0 F. 75.9 F.
Mon Aug 8 13:08:04 2022 89.0 F. 77.0 F.
Mon Aug 8 14:08:04 2022 90.0 F. 77.0 F.
Mon Aug 8 15:08:04 2022 91.0 F. 77.0 F.
Mon Aug 8 16:08:05 2022 91.0 F. 77.0 F.
Mon Aug 8 17:08:05 2022 90.0 F. 78.1 F.
Mon Aug 8 18:08:05 2022 82.0 F. 68.0 F.
Mon Aug 8 19:08:04 2022 78.0 F. 69.1 F.
Mon Aug 8 20:08:04 2022 78.0 F. 69.1 F.
Mon Aug 8 21:08:05 2022 75.0 F. 69.1 F.
Mon Aug 8 22:08:05 2022 75.0 F. 69.1 F.
Mon Aug 8 23:08:05 2022 73.0 F. 70.0 F.
Tue Aug 9 00:08:05 2022 73.0 F. 70.0 F.
Tue Aug 9 01:08:04 2022 73.0 F. 70.0 F.
Tue Aug 9 02:08:05 2022 73.0 F. 70.0 F.
Tue Aug 9 03:08:05 2022 73.0 F. 71.1 F.
Tue Aug 9 04:08:05 2022 73.0 F. 71.1 F.
Tue Aug 9 05:08:10 2022 73.0 F. 71.1 F.
Tue Aug 9 06:08:04 2022 73.0 F. 70.0 F.
Tue Aug 9 07:08:04 2022 73.0 F. 71.1 F.
Tue Aug 9 08:08:04 2022 73.0 F. 71.1 F.
Tue Aug 9 09:08:05 2022 73.0 F. 71.1 F.
Tue Aug 9 10:08:05 2022 78.0 F. 73.0 F.
Tue Aug 9 11:08:05 2022 78.0 F. 73.0 F.
Tue Aug 9 12:08:05 2022 78.0 F. 73.9 F.
Tue Aug 9 13:08:04 2022 80.0 F. 73.9 F.
Tue Aug 9 14:08:05 2022 78.0 F. 75.0 F.
Tue Aug 9 15:08:05 2022 79.0 F. 75.0 F.
Tue Aug 9 16:08:04 2022 83.0 F. 73.9 F.
Tue Aug 9 17:08:05 2022 81.0 F. 71.1 F.
Tue Aug 9 18:08:05 2022 81.0 F. 71.1 F.
Tue Aug 9 19:08:05 2022 77.0 F. 73.0 F.
Tue Aug 9 20:08:04 2022 77.0 F. 73.0 F.
Tue Aug 9 21:08:04 2022 76.0 F. 71.1 F.
Tue Aug 9 22:08:04 2022 74.0 F. 71.1 F.
Tue Aug 9 23:08:05 2022 74.0 F. 71.1 F.
Wed Aug 10 00:08:04 2022 73.0 F. 71.1 F.
Wed Aug 10 01:08:05 2022 73.0 F. 71.1 F.
Wed Aug 10 02:08:04 2022 72.0 F. 70.0 F.
Wed Aug 10 03:08:05 2022 72.0 F. 70.0 F.
Wed Aug 10 04:08:05 2022 72.0 F. 71.1 F.
Wed Aug 10 05:08:05 2022 72.0 F. 70.0 F.
Wed Aug 10 06:08:05 2022 72.0 F. 70.0 F.
Wed Aug 10 07:08:05 2022 71.0 F. 70.0 F.
Wed Aug 10 08:08:04 2022 71.0 F. 69.1 F.
Wed Aug 10 09:08:05 2022 71.0 F. 69.1 F.
Wed Aug 10 10:08:04 2022 73.0 F. 70.0 F.
Wed Aug 10 11:08:04 2022 73.0 F. 69.8 F.
Wed Aug 10 12:08:04 2022 75.0 F. 69.8 F.
Wed Aug 10 13:08:05 2022 77.0 F. 70.0 F.
Wed Aug 10 14:08:05 2022 77.0 F. 69.1 F.
Wed Aug 10 15:08:04 2022 80.0 F. 70.0 F.
Wed Aug 10 16:08:04 2022 80.0 F. 69.1 F.
Wed Aug 10 17:08:05 2022 80.0 F. 69.1 F.
Wed Aug 10 18:08:04 2022 82.0 F. 68.0 F.
Wed Aug 10 19:08:05 2022 82.0 F. 68.0 F.
Wed Aug 10 20:08:05 2022 82.0 F. 68.0 F.
Wed Aug 10 21:08:04 2022 82.0 F. 68.0 F.
Wed Aug 10 22:08:05 2022 82.0 F. 68.0 F.
Wed Aug 10 23:08:05 2022 82.0 F. 68.0 F.
Thu Aug 11 00:08:05 2022 66.0 F. 64.4 F.
Thu Aug 11 01:08:05 2022 66.0 F. 64.4 F.
Thu Aug 11 02:08:05 2022 64.0 F. 62.6 F.
Thu Aug 11 03:08:05 2022 64.0 F. 62.6 F.
Thu Aug 11 04:08:05 2022 64.0 F. 62.6 F.
Thu Aug 11 05:08:05 2022 63.0 F. 60.8 F.
Thu Aug 11 06:08:05 2022 63.0 F. 60.8 F.
Thu Aug 11 07:08:05 2022 63.0 F. 60.8 F.
Thu Aug 11 08:08:05 2022 63.0 F. 60.8 F.
Thu Aug 11 09:08:05 2022 63.0 F. 60.8 F.
Thu Aug 11 10:08:05 2022 63.0 F. 60.8 F.
Thu Aug 11 11:08:05 2022 63.0 F. 60.8 F.
Thu Aug 11 12:08:05 2022 63.0 F. 60.8 F.
Thu Aug 11 13:08:04 2022 63.0 F. 60.8 F.
Thu Aug 11 14:08:05 2022 63.0 F. 60.8 F.
Thu Aug 11 15:08:05 2022 77.0 F. 66.2 F.
Thu Aug 11 16:08:04 2022 84.0 F. 66.2 F.
Thu Aug 11 17:08:05 2022 84.0 F. 66.2 F.
Thu Aug 11 18:08:05 2022 84.0 F. 64.4 F.
Thu Aug 11 19:08:05 2022 84.0 F. 64.4 F.
Thu Aug 11 20:08:04 2022 81.0 F. 68.0 F.
Thu Aug 11 21:08:05 2022 77.0 F. 69.1 F.
Thu Aug 11 22:08:04 2022 74.0 F. 69.1 F.
Thu Aug 11 23:08:05 2022 72.0 F. 68.0 F.
Fri Aug 12 00:08:05 2022 69.0 F. 68.0 F.
Fri Aug 12 01:08:06 2022 69.0 F. 68.0 F.
Fri Aug 12 02:08:11 2022 69.0 F. 68.0 F.
Fri Aug 12 03:08:06 2022 70.0 F. 68.0 F.
Fri Aug 12 04:08:06 2022 70.0 F. 68.0 F.
Fri Aug 12 05:08:05 2022 69.0 F. 66.9 F.
Fri Aug 12 06:08:04 2022 68.0 F. 64.0 F.
Fri Aug 12 07:08:05 2022 66.0 F. 63.0 F.
Fri Aug 12 08:08:05 2022 66.0 F. 63.0 F.
Fri Aug 12 09:08:05 2022 66.0 F. 63.0 F.